Time,TemperatureF,DewpointF,PressureIn,WindDirection,WindDirectionDegrees,WindSpeedMPH,WindSpeedGustMPH,Humidity,HourlyPrecipIn,Conditions,Clouds,dailyrainin,SoftwareType,DateUTC
2013-10-16 00:00:00,61.7,56.9,29.92,WSW,248,0.0,1.1,84,0.00,,,0.00,WUHU216HW,2013-10-16 04:00:00,
2013-10-16 00:01:00,61.7,56.9,29.92,WSW,248,0.0,1.1,84,0.00,,,0.00,WUHU216HW,2013-10-16 04:01:00,
2013-10-16 00:02:00,61.6,56.7,29.92,WSW,248,0.0,1.1,84,0.00,,,0.00,WUHU216HW,2013-10-16 04:02:00,
2013-10-16 00:03:00,61.6,56.7,29.92,South,180,0.0,1.1,84,0.00,,,0.00,WUHU216HW,2013-10-16 04:03:00,
2013-10-16 00:04:00,61.6,56.7,29.92,South,180,0.0,1.1,84,0.00,,,0.00,WUHU216HW,2013-10-16 04:04:00,
2013-10-16 00:07:00,61.2,56.3,29.91,WSW,248,0.0,1.1,84,0.00,,,0.00,WUHU216HW,2013-10-16 04:07:00,
2013-10-16 00:08:00,61.2,56.3,29.91,West,270,0.0,1.1,84,0.00,,,0.00,WUHU216HW,2013-10-16 04:08:00,
2013-10-16 00:09:00,61.2,56.3,29.91,West,270,0.0,1.1,84,0.00,,,0.00,WUHU216HW,2013-10-16 04:09:00,
2013-10-16 00:10:00,61.2,56.3,29.91,West,270,0.0,1.1,84,0.00,,,0.00,WUHU216HW,2013-10-16 04:10:00,
2013-10-16 00:13:00,60.8,56.3,29.91,ESE,113,0.0,1.1,85,0.00,,,0.00,WUHU216HW,2013-10-16 04:13:00,
2013-10-16 00:14:00,60.8,56.3,29.91,SSE,158,1.1,1.1,85,0.00,,,0.00,WUHU216HW,2013-10-16 04:14:00,
2013-10-16 00:15:00,60.8,56.3,29.92,SSE,158,1.1,1.1,85,0.00,,,0.00,WUHU216HW,2013-10-16 04:15:00,
2013-10-16 00:18:00,60.7,56.2,29.91,SSE,158,0.2,1.1,85,0.00,,,0.00,WUHU216HW,2013-10-16 04:18:00,
2013-10-16 00:19:00,60.5,56.0,29.91,SSE,158,0.2,1.1,85,0.00,,,0.00,WUHU216HW,2013-10-16 04:19:00,
2013-10-16 00:20:00,60.5,56.0,29.91,SE,135,1.1,1.1,85,0.00,,,0.00,WUHU216HW,2013-10-16 04:20:00,
2013-10-16 00:21:00,60.3,55.8,29.91,SE,135,1.1,1.1,85,0.00,,,0.00,WUHU216HW,2013-10-16 04:21:00,
2013-10-16 00:22:00,60.3,55.8,29.91,SE,135,0.0,1.1,85,0.00,,,0.00,WUHU216HW,2013-10-16 04:22:00,
2013-10-16 00:25:00,60.3,55.8,29.92,SSE,158,0.0,1.1,85,0.00,,,0.00,WUHU216HW,2013-10-16 04:25:00,
2013-10-16 00:26:00,60.1,55.6,29.92,SSE,158,0.0,1.1,85,0.00,,,0.00,WUHU216HW,2013-10-16 04:26:00,
2013-10-16 00:28:00,60.1,55.6,29.91,SSE,158,0.0,1.1,85,0.00,,,0.00,WUHU216HW,2013-10-16 04:28:00,
2013-10-16 00:30:00,59.9,55.4,29.91,SSE,158,0.0,0.0,85,0.00,,,0.00,WUHU216HW,2013-10-16 04:30:00,
2013-10-16 00:31:00,59.8,55.3,29.91,SSE,158,0.0,0.0,85,0.00,,,0.00,WUHU216HW,2013-10-16 04:31:00,
2013-10-16 00:33:00,59.8,55.6,29.91,SSE,158,0.0,0.0,86,0.00,,,0.00,WUHU216HW,2013-10-16 04:33:00,
2013-10-16 00:35:00,59.6,55.5,29.91,SSE,158,0.0,0.0,86,0.00,,,0.00,WUHU216HW,2013-10-16 04:35:00,
2013-10-16 00:36:00,59.4,55.3,29.91,SSE,158,0.0,0.0,86,0.00,,,0.00,WUHU216HW,2013-10-16 04:36:00,
2013-10-16 00:37:00,59.4,55.3,29.91,SSE,158,0.0,0.0,86,0.00,,,0.00,WUHU216HW,2013-10-16 04:37:00,
2013-10-16 00:38:00,59.4,55.3,29.91,SSE,158,0.0,0.0,86,0.00,,,0.00,WUHU216HW,2013-10-16 04:38:00,
2013-10-16 00:40:00,59.2,55.1,29.91,SSE,158,0.0,0.0,86,0.00,,,0.00,WUHU216HW,2013-10-16 04:40:00,
2013-10-16 00:41:00,59.2,55.1,29.91,SSE,158,0.0,0.0,86,0.00,,,0.00,WUHU216HW,2013-10-16 04:41:00,
2013-10-16 00:42:00,59.2,55.1,29.91,SSE,158,0.7,0.7,86,0.00,,,0.00,WUHU216HW,2013-10-16 04:42:00,
2013-10-16 00:43:00,59.2,55.1,29.91,SSE,158,0.7,0.7,86,0.00,,,0.00,WUHU216HW,2013-10-16 04:43:00,
2013-10-16 00:45:00,59.0,54.9,29.91,SSE,158,0.7,0.7,86,0.00,,,0.00,WUHU216HW,2013-10-16 04:45:00,
2013-10-16 00:46:00,59.0,54.9,29.91,SE,135,0.9,0.9,86,0.00,,,0.00,WUHU216HW,2013-10-16 04:46:00,
2013-10-16 00:47:00,59.0,55.2,29.91,SE,128,0.6,0.9,87,0.00,,,0.00,WUHU216HW,2013-10-16 04:47:00,
2013-10-16 00:48:00,58.9,54.7,29.91,SE,135,1.3,1.3,86,0.00,,,0.00,WUHU216HW,2013-10-16 04:48:00,
2013-10-16 00:52:00,58.7,54.8,29.91,SE,135,1.3,1.3,87,0.00,,,0.00,WUHU216HW,2013-10-16 04:52:00,
2013-10-16 00:53:00,58.7,54.8,29.91,SE,130,0.8,1.3,87,0.00,,,0.00,WUHU216HW,2013-10-16 04:53:00,
2013-10-16 00:54:00,58.7,54.8,29.91,ESE,113,1.1,1.3,87,0.00,,,0.00,WUHU216HW,2013-10-16 04:54:00,
2013-10-16 00:57:00,58.7,54.8,29.91,East,90,0.7,1.8,87,0.00,,,0.00,WUHU216HW,2013-10-16 04:57:00,
2013-10-16 00:58:00,58.7,54.8,29.91,East,90,0.0,1.8,87,0.00,,,0.00,WUHU216HW,2013-10-16 04:58:00,
2013-10-16 00:59:00,58.7,54.8,29.91,East,90,0.0,1.8,87,0.00,,,0.00,WUHU216HW,2013-10-16 04:59:00,
2013-10-16 01:00:00,58.9,55.0,29.91,East,90,0.0,1.8,87,0.00,,,0.00,WUHU216HW,2013-10-16 05:00:00,
2013-10-16 01:04:00,58.7,54.8,29.91,East,90,0.0,1.8,87,0.00,,,0.00,WUHU216HW,2013-10-16 05:04:00,
2013-10-16 01:05:00,58.7,54.8,29.91,East,90,0.0,1.6,87,0.00,,,0.00,WUHU216HW,2013-10-16 05:05:00,
2013-10-16 01:06:00,58.7,54.8,29.91,East,90,0.0,0.7,87,0.00,,,0.00,WUHU216HW,2013-10-16 05:06:00,
2013-10-16 01:09:00,58.7,54.8,29.91,East,90,0.0,0.0,87,0.00,,,0.00,WUHU216HW,2013-10-16 05:09:00,
2013-10-16 01:10:00,58.7,54.8,29.91,East,90,0.0,0.0,87,0.00,,,0.00,WUHU216HW,2013-10-16 05:10:00,
2013-10-16 01:11:00,58.7,54.8,29.91,East,90,0.0,0.0,87,0.00,,,0.00,WUHU216HW,2013-10-16 05:11:00,
2013-10-16 01:14:00,58.7,54.8,29.91,East,90,0.0,0.0,87,0.00,,,0.00,WUHU216HW,2013-10-16 05:14:00,
2013-10-16 01:16:00,58.7,54.8,29.91,East,90,0.0,0.0,87,0.00,,,0.00,WUHU216HW,2013-10-16 05:16:00,
2013-10-16 01:20:00,58.5,54.6,29.90,East,90,0.0,0.0,87,0.00,,,0.00,WUHU216HW,2013-10-16 05:20:00,
2013-10-16 01:21:00,58.5,54.6,29.90,East,90,0.0,0.0,87,0.00,,,0.00,WUHU216HW,2013-10-16 05:21:00,
2013-10-16 01:22:00,58.5,54.6,29.90,East,90,0.0,0.0,87,0.00,,,0.00,WUHU216HW,2013-10-16 05:22:00,
2013-10-16 01:23:00,58.5,54.6,29.90,East,90,0.0,0.0,87,0.00,,,0.00,WUHU216HW,2013-10-16 05:23:00,
2013-10-16 01:25:00,58.5,55.0,29.90,East,90,0.0,0.0,88,0.00,,,0.00,WUHU216HW,2013-10-16 05:25:00,
2013-10-16 01:26:00,58.5,55.0,29.90,East,90,0.0,0.0,88,0.00,,,0.00,WUHU216HW,2013-10-16 05:26:00,
2013-10-16 01:28:00,58.5,55.0,29.90,East,90,0.0,0.0,88,0.00,,,0.00,WUHU216HW,2013-10-16 05:28:00,
2013-10-16 01:29:00,58.3,54.8,29.90,East,90,0.0,0.0,88,0.00,,,0.00,WUHU216HW,2013-10-16 05:29:00,
2013-10-16 01:31:00,58.3,54.8,29.90,East,90,0.0,0.0,88,0.00,,,0.00,WUHU216HW,2013-10-16 05:31:00,
2013-10-16 01:33:00,58.3,54.8,29.90,East,90,0.0,0.0,88,0.00,,,0.00,WUHU216HW,2013-10-16 05:33:00,
2013-10-16 01:34:00,58.3,54.8,29.90,SE,135,0.7,0.7,88,0.00,,,0.00,WUHU216HW,2013-10-16 05:34:00,
2013-10-16 01:37:00,58.1,54.3,29.90,SE,135,0.0,0.9,87,0.00,,,0.00,WUHU216HW,2013-10-16 05:37:00,
2013-10-16 01:39:00,58.3,54.8,29.90,SE,135,0.2,0.9,88,0.00,,,0.00,WUHU216HW,2013-10-16 05:39:00,
2013-10-16 01:40:00,58.1,54.3,29.89,SE,135,0.4,0.9,87,0.00,,,0.00,WUHU216HW,2013-10-16 05:40:00,
2013-10-16 01:42:00,58.1,54.3,29.89,ESE,113,0.9,0.9,87,0.00,,,0.00,WUHU216HW,2013-10-16 05:42:00,
2013-10-16 01:43:00,58.1,54.3,29.89,ESE,113,0.4,0.9,87,0.00,,,0.00,WUHU216HW,2013-10-16 05:43:00,
2013-10-16 01:44:00,58.1,54.3,29.89,SE,135,0.7,0.9,87,0.00,,,0.00,WUHU216HW,2013-10-16 05:44:00,
2013-10-16 01:45:00,58.1,54.3,29.89,SE,135,0.7,0.9,87,0.00,,,0.00,WUHU216HW,2013-10-16 05:45:00,
2013-10-16 01:47:00,58.1,54.3,29.89,SE,135,0.0,0.9,87,0.00,,,0.00,WUHU216HW,2013-10-16 05:47:00,
2013-10-16 01:48:00,58.0,54.1,29.89,SE,135,0.0,0.9,87,0.00,,,0.00,WUHU216HW,2013-10-16 05:48:00,
2013-10-16 01:50:00,58.0,54.1,29.89,SE,135,0.0,0.9,87,0.00,,,0.00,WUHU216HW,2013-10-16 05:50:00,
2013-10-16 01:51:00,58.0,54.1,29.89,SE,135,0.0,0.9,87,0.00,,,0.00,WUHU216HW,2013-10-16 05:51:00,
2013-10-16 01:53:00,58.0,54.1,29.89,SE,135,0.0,0.7,87,0.00,,,0.00,WUHU216HW,2013-10-16 05:53:00,
2013-10-16 01:55:00,58.0,54.1,29.89,SE,135,0.0,0.0,87,0.00,,,0.00,WUHU216HW,2013-10-16 05:55:00,
2013-10-16 01:56:00,58.0,54.1,29.89,SE,135,0.2,0.2,87,0.00,,,0.00,WUHU216HW,2013-10-16 05:56:00,
2013-10-16 02:00:00,57.8,53.9,29.88,SE,135,0.0,0.2,87,0.00,,,0.00,WUHU216HW,2013-10-16 06:00:00,
2013-10-16 02:01:00,57.8,53.9,29.88,SE,135,0.0,0.2,87,0.00,,,0.00,WUHU216HW,2013-10-16 06:01:00,
2013-10-16 02:02:00,57.8,53.9,29.88,SE,135,0.0,0.2,87,0.00,,,0.00,WUHU216HW,2013-10-16 06:02:00,
2013-10-16 02:06:00,57.8,53.9,29.88,SE,135,0.0,0.0,87,0.00,,,0.00,WUHU216HW,2013-10-16 06:06:00,
2013-10-16 02:07:00,57.8,53.9,29.88,SE,135,0.0,0.0,87,0.00,,,0.00,WUHU216HW,2013-10-16 06:07:00,
2013-10-16 02:08:00,57.6,53.7,29.88,SE,135,0.0,0.0,87,0.00,,,0.00,WUHU216HW,2013-10-16 06:08:00,
2013-10-16 02:10:00,57.6,53.7,29.88,SE,135,0.0,0.0,87,0.00,,,0.00,WUHU216HW,2013-10-16 06:10:00,
2013-10-16 02:12:00,57.6,54.1,29.88,SE,135,0.0,0.0,88,0.00,,,0.00,WUHU216HW,2013-10-16 06:12:00,
2013-10-16 02:15:00,57.6,54.1,29.89,SSE,158,0.0,0.0,88,0.00,,,0.00,WUHU216HW,2013-10-16 06:15:00,
2013-10-16 02:17:00,57.4,53.9,29.88,SSE,158,0.0,0.0,88,0.00,,,0.00,WUHU216HW,2013-10-16 06:17:00,
2013-10-16 02:18:00,57.6,54.1,29.89,SSE,158,0.0,0.0,88,0.00,,,0.00,WUHU216HW,2013-10-16 06:18:00,
2013-10-16 02:21:00,57.6,54.1,29.89,SSE,158,0.0,0.0,88,0.00,,,0.00,WUHU216HW,2013-10-16 06:21:00,
2013-10-16 02:22:00,57.6,54.1,29.89,SSE,158,0.0,0.0,88,0.00,,,0.00,WUHU216HW,2013-10-16 06:22:00,
2013-10-16 02:23:00,57.6,54.1,29.89,SSE,158,0.0,0.0,88,0.00,,,0.00,WUHU216HW,2013-10-16 06:23:00,
2013-10-16 02:24:00,57.6,54.1,29.89,SSE,158,0.0,0.0,88,0.00,,,0.00,WUHU216HW,2013-10-16 06:24:00,
2013-10-16 02:26:00,57.6,54.1,29.89,SSE,158,0.0,0.0,88,0.00,,,0.00,WUHU216HW,2013-10-16 06:26:00,
2013-10-16 02:27:00,57.6,54.1,29.89,SSE,158,0.0,0.0,88,0.00,,,0.00,WUHU216HW,2013-10-16 06:27:00,
2013-10-16 02:28:00,57.6,54.1,29.89,SSE,158,0.0,0.0,88,0.00,,,0.00,WUHU216HW,2013-10-16 06:28:00,
2013-10-16 02:29:00,57.6,54.1,29.89,SSE,158,0.0,0.0,88,0.00,,,0.00,WUHU216HW,2013-10-16 06:29:00,
2013-10-16 02:30:00,57.4,53.9,29.89,SSE,158,0.0,0.0,88,0.00,,,0.00,WUHU216HW,2013-10-16 06:30:00,
2013-10-16 02:31:00,57.4,53.9,29.89,SSE,158,0.0,0.0,88,0.00,,,0.00,WUHU216HW,2013-10-16 06:31:00,
2013-10-16 02:33:00,57.6,54.1,29.89,SSE,158,0.0,0.0,88,0.00,,,0.00,WUHU216HW,2013-10-16 06:33:00,
2013-10-16 02:34:00,57.4,53.9,29.89,SSE,158,0.0,0.0,88,0.00,,,0.00,WUHU216HW,2013-10-16 06:34:00,
2013-10-16 02:35:00,57.6,54.1,29.89,SSE,158,0.0,0.0,88,0.00,,,0.00,WUHU216HW,2013-10-16 06:35:00,
2013-10-16 02:36:00,57.4,53.9,29.89,SSE,158,0.0,0.0,88,0.00,,,0.00,WUHU216HW,2013-10-16 06:36:00,
2013-10-16 02:37:00,57.4,53.9,29.89,SSE,158,0.0,0.0,88,0.00,,,0.00,WUHU216HW,2013-10-16 06:37:00,
2013-10-16 02:38:00,57.6,54.1,29.89,SSE,158,0.0,0.0,88,0.00,,,0.00,WUHU216HW,2013-10-16 06:38:00,
2013-10-16 02:39:00,57.6,54.1,29.89,SSE,158,0.0,0.0,88,0.00,,,0.00,WUHU216HW,2013-10-16 06:39:00,
2013-10-16 02:41:00,57.6,54.1,29.89,SSE,158,0.0,0.0,88,0.00,,,0.00,WUHU216HW,2013-10-16 06:41:00,
2013-10-16 02:42:00,57.6,54.1,29.89,SSE,158,0.0,0.0,88,0.00,,,0.00,WUHU216HW,2013-10-16 06:42:00,
2013-10-16 02:43:00,57.6,54.4,29.89,SSE,158,0.0,0.0,89,0.00,,,0.00,WUHU216HW,2013-10-16 06:43:00,
2013-10-16 02:44:00,57.6,54.4,29.90,SSE,158,0.0,0.0,89,0.00,,,0.00,WUHU216HW,2013-10-16 06:44:00,
2013-10-16 02:45:00,57.6,54.4,29.90,SSE,158,0.0,0.0,89,0.00,,,0.00,WUHU216HW,2013-10-16 06:45:00,
2013-10-16 02:46:00,57.6,54.4,29.90,SSE,158,0.0,0.0,89,0.00,,,0.00,WUHU216HW,2013-10-16 06:46:00,
2013-10-16 02:48:00,57.4,53.9,29.90,SSE,158,0.0,0.0,88,0.00,,,0.00,WUHU216HW,2013-10-16 06:48:00,
2013-10-16 02:50:00,57.4,53.9,29.90,SSE,158,0.0,0.0,88,0.00,,,0.00,WUHU216HW,2013-10-16 06:50:00,
2013-10-16 02:51:00,57.4,53.9,29.90,SSE,158,0.0,0.0,88,0.00,,,0.00,WUHU216HW,2013-10-16 06:51:00,
2013-10-16 02:52:00,57.4,53.9,29.90,SSE,158,0.0,0.0,88,0.00,,,0.00,WUHU216HW,2013-10-16 06:52:00,
2013-10-16 02:53:00,57.4,53.9,29.90,SSE,158,0.0,0.0,88,0.00,,,0.00,WUHU216HW,2013-10-16 06:53:00,
2013-10-16 02:54:00,57.2,53.7,29.90,SSE,158,0.0,0.0,88,0.00,,,0.00,WUHU216HW,2013-10-16 06:54:00,
2013-10-16 02:56:00,57.2,54.0,29.90,SSE,158,0.0,0.0,89,0.00,,,0.00,WUHU216HW,2013-10-16 06:56:00,
2013-10-16 02:58:00,57.2,54.0,29.90,SSE,158,0.0,0.0,89,0.00,,,0.00,WUHU216HW,2013-10-16 06:58:00,
2013-10-16 02:59:00,57.2,54.0,29.90,SSE,158,0.0,0.0,89,0.00,,,0.00,WUHU216HW,2013-10-16 06:59:00,
2013-10-16 03:01:00,57.2,54.0,29.90,SSE,158,0.0,0.0,89,0.00,,,0.00,WUHU216HW,2013-10-16 07:01:00,
2013-10-16 03:03:00,57.1,53.8,29.90,SE,135,1.1,1.1,89,0.00,,,0.00,WUHU216HW,2013-10-16 07:03:00,
2013-10-16 03:04:00,57.1,53.8,29.89,SE,135,1.1,1.1,89,0.00,,,0.00,WUHU216HW,2013-10-16 07:04:00,
2013-10-16 03:05:00,56.9,53.4,29.89,SE,135,1.1,1.1,88,0.00,,,0.00,WUHU216HW,2013-10-16 07:05:00,
2013-10-16 03:07:00,56.9,53.4,29.89,SE,135,0.6,1.1,88,0.00,,,0.00,WUHU216HW,2013-10-16 07:07:00,
2013-10-16 03:09:00,56.9,53.4,29.89,SE,135,0.2,1.1,88,0.00,,,0.00,WUHU216HW,2013-10-16 07:09:00,
2013-10-16 03:10:00,56.7,53.5,29.89,SE,135,0.0,1.1,89,0.00,,,0.00,WUHU216HW,2013-10-16 07:10:00,
2013-10-16 03:11:00,56.7,53.5,29.89,SE,135,0.0,1.1,89,0.00,,,0.00,WUHU216HW,2013-10-16 07:11:00,
2013-10-16 03:13:00,56.7,53.5,29.89,SE,135,0.0,1.1,89,0.00,,,0.00,WUHU216HW,2013-10-16 07:13:00,
2013-10-16 03:14:00,56.7,53.5,29.89,SE,135,0.0,1.1,89,0.00,,,0.00,WUHU216HW,2013-10-16 07:14:00,
2013-10-16 03:16:00,56.9,53.6,29.89,SE,135,0.0,0.4,89,0.00,,,0.00,WUHU216HW,2013-10-16 07:16:00,
2013-10-16 03:18:00,56.9,53.6,29.89,SE,135,0.0,0.0,89,0.00,,,0.00,WUHU216HW,2013-10-16 07:18:00,
2013-10-16 03:19:00,56.9,53.6,29.89,SE,135,0.0,0.0,89,0.00,,,0.00,WUHU216HW,2013-10-16 07:19:00,
2013-10-16 03:20:00,56.9,53.6,29.89,SE,135,0.0,0.0,89,0.00,,,0.00,WUHU216HW,2013-10-16 07:20:00,
2013-10-16 03:21:00,56.9,53.6,29.89,SE,135,0.0,0.0,89,0.00,,,0.00,WUHU216HW,2013-10-16 07:21:00,
2013-10-16 03:22:00,56.9,53.6,29.89,SE,135,0.0,0.0,89,0.00,,,0.00,WUHU216HW,2013-10-16 07:22:00,
2013-10-16 03:23:00,56.9,53.6,29.89,SE,135,0.0,0.0,89,0.00,,,0.00,WUHU216HW,2013-10-16 07:23:00,
2013-10-16 03:25:00,56.9,53.6,29.89,SE,135,0.0,0.0,89,0.00,,,0.00,WUHU216HW,2013-10-16 07:25:00,
2013-10-16 03:27:00,56.9,53.6,29.89,SE,135,0.0,0.0,89,0.00,,,0.00,WUHU216HW,2013-10-16 07:27:00,
2013-10-16 03:28:00,56.9,53.6,29.89,SE,135,0.0,0.0,89,0.00,,,0.00,WUHU216HW,2013-10-16 07:28:00,
2013-10-16 03:31:00,56.9,53.6,29.89,SE,135,0.0,0.0,89,0.00,,,0.00,WUHU216HW,2013-10-16 07:31:00,
2013-10-16 03:32:00,56.9,53.6,29.89,SE,135,0.0,0.0,89,0.00,,,0.00,WUHU216HW,2013-10-16 07:32:00,
2013-10-16 03:33:00,56.9,53.6,29.89,SE,135,0.0,0.0,89,0.00,,,0.00,WUHU216HW,2013-10-16 07:33:00,
2013-10-16 03:34:00,56.9,53.6,29.89,SE,135,0.0,0.0,89,0.00,,,0.00,WUHU216HW,2013-10-16 07:34:00,
2013-10-16 03:37:00,56.9,53.6,29.89,SE,135,0.0,0.0,89,0.00,,,0.00,WUHU216HW,2013-10-16 07:37:00,
2013-10-16 03:38:00,56.9,53.6,29.89,SE,135,0.0,0.0,89,0.00,,,0.00,WUHU216HW,2013-10-16 07:38:00,
2013-10-16 03:39:00,56.9,53.6,29.89,SE,135,0.0,0.0,89,0.00,,,0.00,WUHU216HW,2013-10-16 07:39:00,
2013-10-16 03:40:00,56.9,53.6,29.89,SE,135,0.0,0.0,89,0.00,,,0.00,WUHU216HW,2013-10-16 07:40:00,
2013-10-16 03:42:00,56.9,53.6,29.89,SE,135,0.0,0.0,89,0.00,,,0.00,WUHU216HW,2013-10-16 07:42:00,
2013-10-16 03:43:00,56.9,53.6,29.89,SE,135,0.0,0.0,89,0.00,,,0.00,WUHU216HW,2013-10-16 07:43:00,
2013-10-16 03:44:00,56.9,53.6,29.88,SE,135,0.0,0.0,89,0.00,,,0.00,WUHU216HW,2013-10-16 07:44:00,
2013-10-16 03:46:00,56.9,53.6,29.88,SE,135,0.0,0.0,89,0.00,,,0.00,WUHU216HW,2013-10-16 07:46:00,
2013-10-16 03:47:00,57.1,53.8,29.88,SE,135,0.0,0.0,89,0.00,,,0.00,WUHU216HW,2013-10-16 07:47:00,
2013-10-16 03:48:00,57.1,53.8,29.88,SE,135,0.0,0.0,89,0.00,,,0.00,WUHU216HW,2013-10-16 07:48:00,
2013-10-16 03:49:00,57.1,53.8,29.88,SE,135,0.0,0.0,89,0.00,,,0.00,WUHU216HW,2013-10-16 07:49:00,
2013-10-16 03:50:00,57.1,53.8,29.88,SE,135,0.0,0.0,89,0.00,,,0.00,WUHU216HW,2013-10-16 07:50:00,
2013-10-16 03:52:00,57.1,53.8,29.88,SE,135,0.0,0.0,89,0.00,,,0.00,WUHU216HW,2013-10-16 07:52:00,
2013-10-16 03:53:00,56.9,53.6,29.88,SE,135,0.0,0.0,89,0.00,,,0.00,WUHU216HW,2013-10-16 07:53:00,
2013-10-16 03:54:00,57.1,53.8,29.88,SE,135,0.0,0.0,89,0.00,,,0.00,WUHU216HW,2013-10-16 07:54:00,
2013-10-16 03:55:00,57.1,53.8,29.88,SE,135,0.0,0.0,89,0.00,,,0.00,WUHU216HW,2013-10-16 07:55:00,
2013-10-16 03:59:00,57.1,53.8,29.87,SE,135,0.0,0.0,89,0.00,,,0.00,WUHU216HW,2013-10-16 07:59:00,
2013-10-16 04:00:00,57.1,53.8,29.87,SE,135,0.0,0.0,89,0.00,,,0.00,WUHU216HW,2013-10-16 08:00:00,
2013-10-16 04:01:00,57.1,53.8,29.88,SE,135,0.0,0.0,89,0.00,,,0.00,WUHU216HW,2013-10-16 08:01:00,
2013-10-16 04:05:00,57.1,53.8,29.87,SE,135,0.3,0.7,89,0.00,,,0.00,WUHU216HW,2013-10-16 08:05:00,
2013-10-16 04:06:00,57.1,53.8,29.87,SE,135,0.7,0.7,89,0.00,,,0.00,WUHU216HW,2013-10-16 08:06:00,
2013-10-16 04:09:00,57.2,54.0,29.87,SE,135,0.4,1.1,89,0.00,,,0.00,WUHU216HW,2013-10-16 08:09:00,
2013-10-16 04:11:00,57.2,54.0,29.87,SE,135,0.4,1.1,89,0.00,,,0.00,WUHU216HW,2013-10-16 08:11:00,
2013-10-16 04:12:00,57.2,54.0,29.87,SE,135,0.4,1.1,89,0.00,,,0.00,WUHU216HW,2013-10-16 08:12:00,
2013-10-16 04:14:00,57.2,54.0,29.87,SE,135,0.0,1.1,89,0.00,,,0.00,WUHU216HW,2013-10-16 08:14:00,
2013-10-16 04:17:00,57.1,53.8,29.87,SE,135,0.0,0.4,89,0.00,,,0.00,WUHU216HW,2013-10-16 08:17:00,
2013-10-16 04:18:00,57.2,54.0,29.87,SE,135,0.0,0.4,89,0.00,,,0.00,WUHU216HW,2013-10-16 08:18:00,
2013-10-16 04:19:00,57.2,54.0,29.87,SE,135,0.0,0.4,89,0.00,,,0.00,WUHU216HW,2013-10-16 08:19:00,
2013-10-16 04:23:00,57.2,54.0,29.87,SE,135,0.0,0.0,89,0.00,,,0.00,WUHU216HW,2013-10-16 08:23:00,
2013-10-16 04:24:00,57.2,54.0,29.87,SE,135,0.0,0.0,89,0.00,,,0.00,WUHU216HW,2013-10-16 08:24:00,
2013-10-16 04:27:00,57.2,54.0,29.87,SE,135,0.0,0.0,89,0.00,,,0.00,WUHU216HW,2013-10-16 08:27:00,
2013-10-16 04:28:00,57.2,54.0,29.87,SE,135,0.0,0.0,89,0.00,,,0.00,WUHU216HW,2013-10-16 08:28:00,
2013-10-16 04:29:00,57.2,54.0,29.87,SE,135,0.0,0.0,89,0.00,,,0.00,WUHU216HW,2013-10-16 08:29:00,
2013-10-16 04:30:00,57.2,54.0,29.87,SE,135,0.0,0.0,89,0.00,,,0.00,WUHU216HW,2013-10-16 08:30:00,
2013-10-16 04:32:00,57.2,54.0,29.87,SE,135,0.0,0.0,89,0.00,,,0.00,WUHU216HW,2013-10-16 08:32:00,
2013-10-16 04:33:00,57.2,54.0,29.87,SE,135,0.0,0.0,89,0.00,,,0.00,WUHU216HW,2013-10-16 08:33:00,
2013-10-16 04:34:00,57.2,54.0,29.87,SE,135,0.0,0.0,89,0.00,,,0.00,WUHU216HW,2013-10-16 08:34:00,
2013-10-16 04:35:00,57.2,54.0,29.87,SE,135,0.0,0.0,89,0.00,,,0.00,WUHU216HW,2013-10-16 08:35:00,
2013-10-16 04:37:00,57.2,54.0,29.87,SE,135,0.0,0.0,89,0.00,,,0.00,WUHU216HW,2013-10-16 08:37:00,
2013-10-16 04:38:00,57.2,54.0,29.87,SE,135,0.0,0.0,89,0.00,,,0.00,WUHU216HW,2013-10-16 08:38:00,
2013-10-16 04:39:00,57.2,54.0,29.87,SE,135,0.0,0.0,89,0.00,,,0.00,WUHU216HW,2013-10-16 08:39:00,
2013-10-16 04:40:00,57.2,54.0,29.88,SE,135,0.0,0.0,89,0.00,,,0.00,WUHU216HW,2013-10-16 08:40:00,
2013-10-16 04:42:00,57.2,54.0,29.88,SE,135,0.0,0.0,89,0.00,,,0.00,WUHU216HW,2013-10-16 08:42:00,
2013-10-16 04:43:00,57.2,54.0,29.88,SE,135,0.0,0.0,89,0.00,,,0.00,WUHU216HW,2013-10-16 08:43:00,
2013-10-16 04:44:00,57.2,54.0,29.88,SE,135,0.0,0.0,89,0.00,,,0.00,WUHU216HW,2013-10-16 08:44:00,
2013-10-16 04:45:00,57.2,54.0,29.88,SE,135,0.0,0.0,89,0.00,,,0.00,WUHU216HW,2013-10-16 08:45:00,
2013-10-16 04:46:00,57.2,54.0,29.87,SE,135,0.0,0.0,89,0.00,,,0.00,WUHU216HW,2013-10-16 08:46:00,
2013-10-16 04:47:00,57.2,54.0,29.87,ESE,113,1.1,1.1,89,0.00,,,0.00,WUHU216HW,2013-10-16 08:47:00,
2013-10-16 04:49:00,57.2,54.0,29.87,ESE,119,0.6,1.1,89,0.00,,,0.00,WUHU216HW,2013-10-16 08:49:00,
2013-10-16 04:50:00,57.2,54.0,29.87,SE,135,0.4,1.1,89,0.00,,,0.00,WUHU216HW,2013-10-16 08:50:00,
2013-10-16 04:51:00,57.2,54.0,29.87,SE,135,0.3,1.1,89,0.00,,,0.00,WUHU216HW,2013-10-16 08:51:00,
2013-10-16 04:52:00,57.2,54.0,29.87,SE,135,0.2,1.1,89,0.00,,,0.00,WUHU216HW,2013-10-16 08:52:00,
2013-10-16 04:54:00,57.2,54.0,29.87,SE,135,0.0,1.1,89,0.00,,,0.00,WUHU216HW,2013-10-16 08:54:00,
2013-10-16 04:55:00,57.1,53.8,29.87,SE,135,0.0,1.1,89,0.00,,,0.00,WUHU216HW,2013-10-16 08:55:00,
2013-10-16 04:56:00,57.1,53.8,29.88,SE,135,0.0,1.1,89,0.00,,,0.00,WUHU216HW,2013-10-16 08:56:00,
2013-10-16 04:57:00,57.1,53.8,29.88,SE,135,0.0,1.1,89,0.00,,,0.00,WUHU216HW,2013-10-16 08:57:00,
2013-10-16 04:58:00,57.1,53.8,29.88,SSE,158,0.0,0.4,89,0.00,,,0.00,WUHU216HW,2013-10-16 08:58:00,
2013-10-16 05:00:00,57.1,53.8,29.88,SSE,158,0.4,0.4,89,0.00,,,0.00,WUHU216HW,2013-10-16 09:00:00,
2013-10-16 05:01:00,57.1,53.8,29.88,SSE,158,0.4,0.4,89,0.00,,,0.00,WUHU216HW,2013-10-16 09:01:00,
2013-10-16 05:02:00,57.1,53.8,29.88,SSE,158,0.0,0.4,89,0.00,,,0.00,WUHU216HW,2013-10-16 09:02:00,
2013-10-16 05:05:00,57.1,53.8,29.88,SSE,158,0.0,0.4,89,0.00,,,0.00,WUHU216HW,2013-10-16 09:05:00,
2013-10-16 05:06:00,57.1,53.8,29.88,SSE,158,0.0,0.4,89,0.00,,,0.00,WUHU216HW,2013-10-16 09:06:00,
2013-10-16 05:07:00,57.1,53.8,29.88,SSE,158,0.0,0.4,89,0.00,,,0.00,WUHU216HW,2013-10-16 09:07:00,
2013-10-16 05:09:00,56.9,53.6,29.88,ESE,113,0.9,0.9,89,0.00,,,0.00,WUHU216HW,2013-10-16 09:09:00,
2013-10-16 05:10:00,56.9,53.6,29.88,ESE,113,0.6,0.9,89,0.00,,,0.00,WUHU216HW,2013-10-16 09:10:00,
2013-10-16 05:11:00,56.9,53.6,29.88,ESE,113,0.3,0.9,89,0.00,,,0.00,WUHU216HW,2013-10-16 09:11:00,
2013-10-16 05:12:00,56.9,53.6,29.88,ESE,113,0.0,0.9,89,0.00,,,0.00,WUHU216HW,2013-10-16 09:12:00,
2013-10-16 05:13:00,56.9,53.6,29.88,ESE,113,0.0,0.9,89,0.00,,,0.00,WUHU216HW,2013-10-16 09:13:00,
2013-10-16 05:15:00,56.9,53.6,29.88,ESE,113,0.0,0.9,89,0.00,,,0.00,WUHU216HW,2013-10-16 09:15:00,
2013-10-16 05:17:00,56.9,54.0,29.88,ESE,113,0.0,0.9,90,0.00,,,0.00,WUHU216HW,2013-10-16 09:17:00,
2013-10-16 05:19:00,56.9,53.6,29.88,ESE,113,0.0,0.4,89,0.00,,,0.00,WUHU216HW,2013-10-16 09:19:00,
2013-10-16 05:22:00,56.9,54.0,29.88,ESE,113,0.0,0.0,90,0.00,,,0.00,WUHU216HW,2013-10-16 09:22:00,
2013-10-16 05:25:00,56.9,54.0,29.89,ESE,113,0.0,0.0,90,0.00,,,0.00,WUHU216HW,2013-10-16 09:25:00,
2013-10-16 05:27:00,56.9,54.0,29.89,ESE,113,0.0,0.0,90,0.00,,,0.00,WUHU216HW,2013-10-16 09:27:00,
2013-10-16 05:28:00,56.9,54.0,29.89,ESE,113,0.0,0.0,90,0.00,,,0.00,WUHU216HW,2013-10-16 09:28:00,
2013-10-16 05:31:00,57.1,54.2,29.89,ESE,113,0.0,0.0,90,0.00,,,0.00,WUHU216HW,2013-10-16 09:31:00,
2013-10-16 05:33:00,57.1,54.2,29.89,ESE,113,0.0,0.0,90,0.00,,,0.00,WUHU216HW,2013-10-16 09:33:00,
2013-10-16 05:35:00,57.2,54.4,29.89,ESE,113,0.0,0.0,90,0.00,,,0.00,WUHU216HW,2013-10-16 09:35:00,
2013-10-16 05:36:00,57.2,54.4,29.89,ESE,113,0.0,0.0,90,0.00,,,0.00,WUHU216HW,2013-10-16 09:36:00,
2013-10-16 05:37:00,57.2,54.4,29.89,ESE,113,0.2,0.2,90,0.00,,,0.00,WUHU216HW,2013-10-16 09:37:00,
2013-10-16 05:39:00,57.2,54.4,29.89,SE,135,0.4,0.4,90,0.00,,,0.00,WUHU216HW,2013-10-16 09:39:00,
2013-10-16 05:40:00,57.2,54.4,29.89,SE,135,0.0,0.4,90,0.00,,,0.00,WUHU216HW,2013-10-16 09:40:00,
2013-10-16 05:41:00,57.2,54.4,29.88,ESE,113,0.0,0.4,90,0.00,,,0.00,WUHU216HW,2013-10-16 09:41:00,
2013-10-16 05:43:00,57.4,54.5,29.88,ESE,113,0.0,0.4,90,0.00,,,0.00,WUHU216HW,2013-10-16 09:43:00,
2013-10-16 05:44:00,57.4,54.5,29.88,ESE,113,0.0,0.4,90,0.00,,,0.00,WUHU216HW,2013-10-16 09:44:00,
2013-10-16 05:45:00,57.4,54.5,29.88,SE,135,0.0,0.4,90,0.00,,,0.00,WUHU216HW,2013-10-16 09:45:00,
2013-10-16 05:48:00,57.4,54.5,29.88,ESE,113,0.0,0.0,90,0.00,,,0.00,WUHU216HW,2013-10-16 09:48:00,
2013-10-16 05:50:00,57.6,54.7,29.87,ESE,113,0.0,0.0,90,0.00,,,0.00,WUHU216HW,2013-10-16 09:50:00,
2013-10-16 05:51:00,57.6,54.7,29.87,ESE,113,0.0,0.0,90,0.00,,,0.00,WUHU216HW,2013-10-16 09:51:00,
2013-10-16 05:53:00,57.6,54.7,29.88,ESE,113,0.0,0.0,90,0.00,,,0.00,WUHU216HW,2013-10-16 09:53:00,
2013-10-16 05:54:00,57.6,54.7,29.88,ESE,113,0.0,0.0,90,0.00,,,0.00,WUHU216HW,2013-10-16 09:54:00,
2013-10-16 05:55:00,57.6,54.7,29.88,ESE,113,0.0,0.0,90,0.00,,,0.00,WUHU216HW,2013-10-16 09:55:00,
2013-10-16 05:56:00,57.6,54.7,29.88,ESE,113,0.0,0.0,90,0.00,,,0.00,WUHU216HW,2013-10-16 09:56:00,
2013-10-16 05:57:00,57.6,54.7,29.88,ESE,113,0.0,0.0,90,0.00,,,0.00,WUHU216HW,2013-10-16 09:57:00,
2013-10-16 05:59:00,57.6,54.7,29.88,SE,135,0.0,0.0,90,0.00,,,0.00,WUHU216HW,2013-10-16 09:59:00,
2013-10-16 06:00:00,57.6,54.7,29.88,SE,135,0.0,0.0,90,0.00,,,0.00,WUHU216HW,2013-10-16 10:00:00,
2013-10-16 06:01:00,57.6,54.7,29.88,SE,135,0.0,0.0,90,0.00,,,0.00,WUHU216HW,2013-10-16 10:01:00,
2013-10-16 06:02:00,57.6,54.7,29.88,SE,135,0.0,0.0,90,0.00,,,0.00,WUHU216HW,2013-10-16 10:02:00,
2013-10-16 06:04:00,57.6,54.7,29.88,SE,135,0.0,0.0,90,0.00,,,0.00,WUHU216HW,2013-10-16 10:04:00,
2013-10-16 06:05:00,57.6,54.7,29.88,SE,135,0.0,0.0,90,0.00,,,0.00,WUHU216HW,2013-10-16 10:05:00,
2013-10-16 06:07:00,57.8,54.9,29.88,SE,135,0.0,0.0,90,0.00,,,0.00,WUHU216HW,2013-10-16 10:07:00,
2013-10-16 06:08:00,57.6,54.7,29.89,SE,135,0.0,0.0,90,0.00,,,0.00,WUHU216HW,2013-10-16 10:08:00,
2013-10-16 06:09:00,57.6,54.7,29.88,SE,135,0.0,0.0,90,0.00,,,0.00,WUHU216HW,2013-10-16 10:09:00,
2013-10-16 06:11:00,57.6,54.7,29.89,SE,135,0.0,0.0,90,0.00,,,0.00,WUHU216HW,2013-10-16 10:11:00,
2013-10-16 06:12:00,57.6,54.7,29.89,SE,135,0.0,0.0,90,0.00,,,0.00,WUHU216HW,2013-10-16 10:12:00,
2013-10-16 06:13:00,57.6,54.7,29.89,SE,135,0.2,0.2,90,0.00,,,0.00,WUHU216HW,2013-10-16 10:13:00,
2013-10-16 06:14:00,57.8,54.9,29.89,SE,135,0.0,0.2,90,0.00,,,0.00,WUHU216HW,2013-10-16 10:14:00,
2013-10-16 06:15:00,57.8,54.9,29.89,SE,135,0.0,0.2,90,0.00,,,0.00,WUHU216HW,2013-10-16 10:15:00,
2013-10-16 06:16:00,57.8,54.9,29.89,SE,135,0.0,0.2,90,0.00,,,0.00,WUHU216HW,2013-10-16 10:16:00,
2013-10-16 06:17:00,57.6,54.7,29.89,SE,135,0.0,0.2,90,0.00,,,0.00,WUHU216HW,2013-10-16 10:17:00,
2013-10-16 06:18:00,57.6,54.7,29.89,SE,135,0.0,0.2,90,0.00,,,0.00,WUHU216HW,2013-10-16 10:18:00,
2013-10-16 06:20:00,57.8,54.9,29.89,SE,135,0.0,0.2,90,0.00,,,0.00,WUHU216HW,2013-10-16 10:20:00,
2013-10-16 06:22:00,57.8,54.9,29.89,SE,135,0.0,0.2,90,0.00,,,0.00,WUHU216HW,2013-10-16 10:22:00,
2013-10-16 06:23:00,57.8,54.9,29.89,SE,135,0.0,0.0,90,0.00,,,0.00,WUHU216HW,2013-10-16 10:23:00,
2013-10-16 06:24:00,57.8,54.9,29.89,SE,135,0.0,0.0,90,0.00,,,0.00,WUHU216HW,2013-10-16 10:24:00,
2013-10-16 06:25:00,57.8,54.9,29.89,SE,135,0.0,0.0,90,0.00,,,0.00,WUHU216HW,2013-10-16 10:25:00,
2013-10-16 06:26:00,57.8,54.9,29.89,SE,135,0.0,0.0,90,0.00,,,0.00,WUHU216HW,2013-10-16 10:26:00,
2013-10-16 06:27:00,57.8,54.9,29.89,SE,135,0.0,0.0,90,0.00,,,0.00,WUHU216HW,2013-10-16 10:27:00,
2013-10-16 06:29:00,57.8,54.9,29.89,SE,135,0.0,0.0,90,0.00,,,0.00,WUHU216HW,2013-10-16 10:29:00,
2013-10-16 06:30:00,57.8,54.9,29.89,SE,135,0.0,0.0,90,0.00,,,0.00,WUHU216HW,2013-10-16 10:30:00,
2013-10-16 06:32:00,57.8,54.9,29.89,SE,135,0.0,0.0,90,0.00,,,0.00,WUHU216HW,2013-10-16 10:32:00,
2013-10-16 06:33:00,57.8,54.9,29.89,SE,135,0.0,0.0,90,0.00,,,0.00,WUHU216HW,2013-10-16 10:33:00,
2013-10-16 06:35:00,57.8,54.9,29.89,SE,135,0.0,0.0,90,0.00,,,0.00,WUHU216HW,2013-10-16 10:35:00,
2013-10-16 06:36:00,57.8,54.9,29.89,SE,135,0.0,0.0,90,0.00,,,0.00,WUHU216HW,2013-10-16 10:36:00,
2013-10-16 06:37:00,57.8,54.9,29.89,SE,135,0.0,0.0,90,0.00,,,0.00,WUHU216HW,2013-10-16 10:37:00,
2013-10-16 06:38:00,57.8,54.9,29.89,SE,135,0.0,0.0,90,0.00,,,0.00,WUHU216HW,2013-10-16 10:38:00,
2013-10-16 06:40:00,58.0,55.1,29.89,SE,135,0.0,0.0,90,0.00,,,0.00,WUHU216HW,2013-10-16 10:40:00,
2013-10-16 06:41:00,58.0,55.1,29.89,SE,135,0.2,0.2,90,0.00,,,0.00,WUHU216HW,2013-10-16 10:41:00,
2013-10-16 06:42:00,58.0,55.1,29.89,SE,135,0.2,0.2,90,0.00,,,0.00,WUHU216HW,2013-10-16 10:42:00,
2013-10-16 06:43:00,58.0,55.1,29.89,SE,135,0.0,0.2,90,0.00,,,0.00,WUHU216HW,2013-10-16 10:43:00,
2013-10-16 06:44:00,58.0,55.1,29.89,SE,135,0.0,0.2,90,0.00,,,0.00,WUHU216HW,2013-10-16 10:44:00,
2013-10-16 06:46:00,58.0,55.1,29.89,SE,135,0.4,0.4,90,0.00,,,0.00,WUHU216HW,2013-10-16 10:46:00,
2013-10-16 06:48:00,58.0,55.1,29.89,ESE,113,0.7,0.7,90,0.00,,,0.00,WUHU216HW,2013-10-16 10:48:00,
2013-10-16 06:51:00,58.0,55.1,29.89,SE,135,0.8,0.9,90,0.00,,,0.00,WUHU216HW,2013-10-16 10:51:00,
2013-10-16 06:53:00,58.0,55.1,29.89,SE,135,0.7,0.9,90,0.00,,,0.00,WUHU216HW,2013-10-16 10:53:00,
2013-10-16 06:54:00,58.1,55.3,29.89,SE,135,0.0,0.9,90,0.00,,,0.00,WUHU216HW,2013-10-16 10:54:00,
2013-10-16 06:55:00,58.0,55.1,29.89,SE,135,0.0,0.9,90,0.00,,,0.00,WUHU216HW,2013-10-16 10:55:00,
2013-10-16 06:57:00,58.0,55.1,29.89,SE,135,0.0,0.9,90,0.00,,,0.00,WUHU216HW,2013-10-16 10:57:00,
2013-10-16 06:58:00,58.0,55.1,29.88,SE,135,0.0,0.9,90,0.00,,,0.00,WUHU216HW,2013-10-16 10:58:00,
2013-10-16 06:59:00,58.0,55.1,29.89,SE,135,0.0,0.9,90,0.00,,,0.00,WUHU216HW,2013-10-16 10:59:00,
2013-10-16 07:00:00,58.0,55.1,29.89,SE,135,0.0,0.7,90,0.00,,,0.00,WUHU216HW,2013-10-16 11:00:00,
2013-10-16 07:01:00,58.0,55.1,29.89,SE,135,0.0,0.7,90,0.00,,,0.00,WUHU216HW,2013-10-16 11:01:00,
2013-10-16 07:02:00,58.1,55.3,29.88,SE,135,0.0,0.0,90,0.00,,,0.00,WUHU216HW,2013-10-16 11:02:00,
2013-10-16 07:05:00,58.0,55.1,29.89,SE,135,0.0,0.0,90,0.00,,,0.00,WUHU216HW,2013-10-16 11:05:00,
2013-10-16 07:06:00,58.1,55.3,29.89,SE,135,0.0,0.0,90,0.00,,,0.00,WUHU216HW,2013-10-16 11:06:00,
2013-10-16 07:07:00,58.1,55.3,29.89,SE,135,0.0,0.0,90,0.00,,,0.00,WUHU216HW,2013-10-16 11:07:00,
2013-10-16 07:08:00,58.1,55.3,29.88,SE,135,0.0,0.0,90,0.00,,,0.00,WUHU216HW,2013-10-16 11:08:00,
2013-10-16 07:10:00,58.1,55.3,29.88,SSE,158,0.0,0.0,90,0.00,,,0.00,WUHU216HW,2013-10-16 11:10:00,
2013-10-16 07:11:00,58.1,55.3,29.89,SSE,158,0.0,0.0,90,0.00,,,0.00,WUHU216HW,2013-10-16 11:11:00,
2013-10-16 07:13:00,58.1,55.3,29.89,SSE,158,0.0,0.0,90,0.00,,,0.00,WUHU216HW,2013-10-16 11:13:00,
2013-10-16 07:16:00,58.1,55.3,29.89,SSE,158,0.0,0.0,90,0.00,,,0.00,WUHU216HW,2013-10-16 11:16:00,
2013-10-16 07:17:00,58.1,55.3,29.89,SSE,158,0.0,0.0,90,0.00,,,0.00,WUHU216HW,2013-10-16 11:17:00,
2013-10-16 07:18:00,58.1,55.3,29.89,SSE,158,0.0,0.0,90,0.00,,,0.00,WUHU216HW,2013-10-16 11:18:00,
2013-10-16 07:19:00,58.1,55.3,29.89,SSE,158,0.0,0.0,90,0.00,,,0.00,WUHU216HW,2013-10-16 11:19:00,
2013-10-16 07:20:00,58.1,55.3,29.89,SSE,158,0.0,0.0,90,0.00,,,0.00,WUHU216HW,2013-10-16 11:20:00,
2013-10-16 07:21:00,58.1,55.3,29.89,SSE,158,0.0,0.0,90,0.00,,,0.00,WUHU216HW,2013-10-16 11:21:00,
2013-10-16 07:23:00,58.1,55.3,29.89,SSE,158,0.0,0.0,90,0.00,,,0.00,WUHU216HW,2013-10-16 11:23:00,
2013-10-16 07:24:00,58.1,55.3,29.89,SSE,158,0.0,0.0,90,0.00,,,0.00,WUHU216HW,2013-10-16 11:24:00,
2013-10-16 07:26:00,58.1,55.3,29.89,SSE,158,0.0,0.0,90,0.00,,,0.00,WUHU216HW,2013-10-16 11:26:00,
2013-10-16 07:27:00,58.1,55.3,29.89,SSE,158,0.0,0.0,90,0.00,,,0.00,WUHU216HW,2013-10-16 11:27:00,
2013-10-16 07:30:00,58.1,55.3,29.90,SSE,158,0.0,0.0,90,0.00,,,0.00,WUHU216HW,2013-10-16 11:30:00,
2013-10-16 07:31:00,58.1,55.3,29.90,SSE,158,0.0,0.0,90,0.00,,,0.00,WUHU216HW,2013-10-16 11:31:00,
2013-10-16 07:32:00,58.1,55.3,29.90,SSE,158,0.0,0.0,90,0.00,,,0.00,WUHU216HW,2013-10-16 11:32:00,
2013-10-16 07:33:00,58.1,55.3,29.90,SSE,158,0.0,0.0,90,0.00,,,0.00,WUHU216HW,2013-10-16 11:33:00,
2013-10-16 07:36:00,58.1,55.3,29.90,SSE,158,0.0,0.0,90,0.00,,,0.00,WUHU216HW,2013-10-16 11:36:00,
2013-10-16 07:37:00,58.1,55.3,29.90,SSE,158,0.0,0.0,90,0.00,,,0.00,WUHU216HW,2013-10-16 11:37:00,
2013-10-16 07:38:00,58.1,55.3,29.90,SSE,158,0.0,0.0,90,0.00,,,0.00,WUHU216HW,2013-10-16 11:38:00,
2013-10-16 07:39:00,58.1,55.3,29.90,SSE,158,0.0,0.0,90,0.00,,,0.00,WUHU216HW,2013-10-16 11:39:00,
2013-10-16 07:42:00,58.1,55.3,29.90,SSE,153,0.4,0.7,90,0.00,,,0.00,WUHU216HW,2013-10-16 11:42:00,
2013-10-16 07:43:00,58.1,55.3,29.90,SE,135,0.2,0.7,90,0.00,,,0.00,WUHU216HW,2013-10-16 11:43:00,
2013-10-16 07:44:00,58.1,55.3,29.89,SE,135,0.2,0.7,90,0.00,,,0.00,WUHU216HW,2013-10-16 11:44:00,
2013-10-16 07:48:00,58.1,55.3,29.90,SE,135,0.0,0.7,90,0.00,,,0.00,WUHU216HW,2013-10-16 11:48:00,
2013-10-16 07:51:00,58.1,55.3,29.90,SE,135,0.0,0.2,90,0.00,,,0.00,WUHU216HW,2013-10-16 11:51:00,
2013-10-16 07:52:00,58.0,55.1,29.90,SE,135,0.0,0.2,90,0.00,,,0.00,WUHU216HW,2013-10-16 11:52:00,
2013-10-16 07:53:00,58.0,55.1,29.90,SE,135,0.0,0.2,90,0.00,,,0.00,WUHU216HW,2013-10-16 11:53:00,
2013-10-16 07:54:00,58.0,55.1,29.90,SE,135,0.0,0.0,90,0.00,,,0.00,WUHU216HW,2013-10-16 11:54:00,
2013-10-16 07:57:00,58.0,55.1,29.90,SE,135,0.0,0.0,90,0.00,,,0.00,WUHU216HW,2013-10-16 11:57:00,
2013-10-16 07:59:00,58.0,55.1,29.90,SE,135,0.0,0.0,90,0.00,,,0.00,WUHU216HW,2013-10-16 11:59:00,
2013-10-16 08:00:00,58.0,55.1,29.90,SE,135,0.0,0.0,90,0.00,,,0.00,WUHU216HW,2013-10-16 12:00:00,
2013-10-16 08:01:00,58.0,55.1,29.90,SE,135,0.0,0.0,90,0.00,,,0.00,WUHU216HW,2013-10-16 12:01:00,
2013-10-16 08:03:00,58.0,55.1,29.90,SE,135,0.0,0.0,90,0.00,,,0.00,WUHU216HW,2013-10-16 12:03:00,
2013-10-16 08:04:00,58.0,55.1,29.90,SE,135,0.0,0.0,90,0.00,,,0.00,WUHU216HW,2013-10-16 12:04:00,
2013-10-16 08:05:00,58.0,55.1,29.90,SE,135,0.0,0.0,90,0.00,,,0.00,WUHU216HW,2013-10-16 12:05:00,
2013-10-16 08:06:00,58.0,55.1,29.90,SE,135,0.0,0.0,90,0.00,,,0.00,WUHU216HW,2013-10-16 12:06:00,
2013-10-16 08:07:00,58.0,55.1,29.90,SE,135,0.0,0.0,90,0.00,,,0.00,WUHU216HW,2013-10-16 12:07:00,
2013-10-16 08:09:00,58.0,55.1,29.89,SE,135,0.4,0.4,90,0.00,,,0.00,WUHU216HW,2013-10-16 12:09:00,
2013-10-16 08:10:00,58.0,55.1,29.89,SE,135,0.4,0.4,90,0.00,,,0.00,WUHU216HW,2013-10-16 12:10:00,
2013-10-16 08:11:00,58.0,55.1,29.89,SE,135,0.2,0.4,90,0.00,,,0.00,WUHU216HW,2013-10-16 12:11:00,
2013-10-16 08:12:00,58.0,55.1,29.89,SE,135,0.2,0.4,90,0.00,,,0.00,WUHU216HW,2013-10-16 12:12:00,
2013-10-16 08:14:00,58.1,55.3,29.89,SE,135,0.4,0.4,90,0.00,,,0.00,WUHU216HW,2013-10-16 12:14:00,
2013-10-16 08:15:00,58.1,55.3,29.89,SE,135,0.7,0.7,90,0.00,,,0.00,WUHU216HW,2013-10-16 12:15:00,
2013-10-16 08:17:00,58.3,55.4,29.89,SE,135,0.0,0.7,90,0.00,,,0.00,WUHU216HW,2013-10-16 12:17:00,
2013-10-16 08:18:00,58.3,55.4,29.89,SE,135,0.0,0.7,90,0.00,,,0.00,WUHU216HW,2013-10-16 12:18:00,
2013-10-16 08:19:00,58.3,55.4,29.89,SE,135,0.0,0.7,90,0.00,,,0.00,WUHU216HW,2013-10-16 12:19:00,
2013-10-16 08:20:00,58.3,55.4,29.89,SE,135,0.0,0.7,90,0.00,,,0.00,WUHU216HW,2013-10-16 12:20:00,
2013-10-16 08:21:00,58.5,55.6,29.89,ESE,113,0.0,0.7,90,0.00,,,0.00,WUHU216HW,2013-10-16 12:21:00,
2013-10-16 08:23:00,58.5,55.6,29.89,WSW,248,0.4,0.7,90,0.00,,,0.00,WUHU216HW,2013-10-16 12:23:00,
2013-10-16 08:24:00,58.7,55.8,29.89,WSW,248,0.4,0.7,90,0.00,,,0.00,WUHU216HW,2013-10-16 12:24:00,
2013-10-16 08:25:00,58.7,55.8,29.89,WSW,248,0.9,0.9,90,0.00,,,0.00,WUHU216HW,2013-10-16 12:25:00,
2013-10-16 08:26:00,58.7,55.8,29.89,WSW,248,0.6,0.9,90,0.00,,,0.00,WUHU216HW,2013-10-16 12:26:00,
2013-10-16 08:28:00,58.9,56.0,29.90,WSW,248,0.4,0.9,90,0.00,,,0.00,WUHU216HW,2013-10-16 12:28:00,
2013-10-16 08:29:00,58.9,56.0,29.90,WSW,248,0.4,0.9,90,0.00,,,0.00,WUHU216HW,2013-10-16 12:29:00,
2013-10-16 08:30:00,58.9,56.0,29.90,WSW,248,0.2,0.9,90,0.00,,,0.00,WUHU216HW,2013-10-16 12:30:00,
2013-10-16 08:31:00,58.9,56.0,29.90,WSW,248,0.2,0.9,90,0.00,,,0.00,WUHU216HW,2013-10-16 12:31:00,
2013-10-16 08:33:00,59.0,56.4,29.90,WSW,248,0.0,0.9,91,0.00,,,0.00,WUHU216HW,2013-10-16 12:33:00,
2013-10-16 08:35:00,59.0,56.4,29.91,WSW,248,0.0,0.4,91,0.00,,,0.00,WUHU216HW,2013-10-16 12:35:00,
2013-10-16 08:36:00,59.0,56.4,29.91,WSW,248,0.0,0.4,91,0.00,,,0.00,WUHU216HW,2013-10-16 12:36:00,
2013-10-16 08:37:00,59.0,56.4,29.90,WSW,248,0.0,0.4,91,0.00,,,0.00,WUHU216HW,2013-10-16 12:37:00,
2013-10-16 08:38:00,59.0,56.4,29.91,WSW,248,0.0,0.2,91,0.00,,,0.00,WUHU216HW,2013-10-16 12:38:00,
2013-10-16 08:41:00,59.2,56.6,29.91,WSW,248,0.0,0.0,91,0.00,,,0.00,WUHU216HW,2013-10-16 12:41:00,
2013-10-16 08:42:00,59.2,56.3,29.91,WSW,248,0.0,0.0,90,0.00,,,0.00,WUHU216HW,2013-10-16 12:42:00,
2013-10-16 08:43:00,59.2,56.3,29.91,WSW,248,0.0,0.0,90,0.00,,,0.00,WUHU216HW,2013-10-16 12:43:00,
2013-10-16 08:44:00,59.2,56.3,29.91,WSW,248,0.0,0.0,90,0.00,,,0.00,WUHU216HW,2013-10-16 12:44:00,
2013-10-16 08:48:00,59.4,56.5,29.91,SW,225,0.0,0.0,90,0.00,,,0.00,WUHU216HW,2013-10-16 12:48:00,
2013-10-16 08:49:00,59.4,56.5,29.91,SW,225,0.0,0.0,90,0.00,,,0.00,WUHU216HW,2013-10-16 12:49:00,
2013-10-16 08:51:00,59.4,56.5,29.90,ESE,113,0.4,0.4,90,0.00,,,0.00,WUHU216HW,2013-10-16 12:51:00,
2013-10-16 08:54:00,59.6,56.7,29.91,SE,135,0.9,0.9,90,0.00,,,0.00,WUHU216HW,2013-10-16 12:54:00,
2013-10-16 08:55:00,59.6,56.7,29.91,SE,135,0.6,0.9,90,0.00,,,0.00,WUHU216HW,2013-10-16 12:55:00,
2013-10-16 08:56:00,59.6,56.7,29.90,SE,135,0.4,0.9,90,0.00,,,0.00,WUHU216HW,2013-10-16 12:56:00,
2013-10-16 08:59:00,59.8,56.9,29.91,SE,135,0.0,0.9,90,0.00,,,0.00,WUHU216HW,2013-10-16 12:59:00,
2013-10-16 09:00:00,59.8,56.9,29.91,SE,135,0.0,0.9,90,0.00,,,0.00,WUHU216HW,2013-10-16 13:00:00,
2013-10-16 09:01:00,59.9,57.1,29.91,SE,135,0.0,0.9,90,0.00,,,0.00,WUHU216HW,2013-10-16 13:01:00,
2013-10-16 09:02:00,59.9,57.1,29.91,SE,135,0.4,0.9,90,0.00,,,0.00,WUHU216HW,2013-10-16 13:02:00,
2013-10-16 09:03:00,60.1,57.2,29.91,ESE,113,0.9,0.9,90,0.00,,,0.00,WUHU216HW,2013-10-16 13:03:00,
2013-10-16 09:05:00,60.1,57.2,29.91,ESE,113,0.6,0.9,90,0.00,,,0.00,WUHU216HW,2013-10-16 13:05:00,
2013-10-16 09:06:00,60.3,57.4,29.91,ESE,113,0.4,0.9,90,0.00,,,0.00,WUHU216HW,2013-10-16 13:06:00,
2013-10-16 09:07:00,60.3,57.4,29.91,ESE,113,0.0,0.9,90,0.00,,,0.00,WUHU216HW,2013-10-16 13:07:00,
2013-10-16 09:09:00,60.5,57.6,29.91,ESE,113,0.4,0.9,90,0.00,,,0.00,WUHU216HW,2013-10-16 13:09:00,
2013-10-16 09:10:00,60.5,57.6,29.91,ESE,113,0.4,0.9,90,0.00,,,0.00,WUHU216HW,2013-10-16 13:10:00,
2013-10-16 09:11:00,60.5,57.6,29.91,SE,135,0.0,0.9,90,0.00,,,0.00,WUHU216HW,2013-10-16 13:11:00,
2013-10-16 09:12:00,60.5,57.6,29.91,SE,135,0.0,0.9,90,0.00,,,0.00,WUHU216HW,2013-10-16 13:12:00,
2013-10-16 09:14:00,60.7,57.8,29.91,SE,135,0.0,0.4,90,0.00,,,0.00,WUHU216HW,2013-10-16 13:14:00,
2013-10-16 09:15:00,60.8,58.0,29.91,SSE,158,0.0,0.4,90,0.00,,,0.00,WUHU216HW,2013-10-16 13:15:00,
2013-10-16 09:18:00,60.8,58.0,29.91,SSE,158,0.0,0.4,90,0.00,,,0.00,WUHU216HW,2013-10-16 13:18:00,
2013-10-16 09:20:00,61.0,58.1,29.92,SSE,158,0.0,0.0,90,0.00,,,0.00,WUHU216HW,2013-10-16 13:20:00,
2013-10-16 09:21:00,61.0,58.1,29.92,SSE,158,0.0,0.0,90,0.00,,,0.00,WUHU216HW,2013-10-16 13:21:00,
2013-10-16 09:23:00,61.0,58.1,29.92,SSE,158,0.0,0.0,90,0.00,,,0.00,WUHU216HW,2013-10-16 13:23:00,
2013-10-16 09:25:00,61.2,58.0,29.92,SSE,158,0.0,0.0,89,0.00,,,0.00,WUHU216HW,2013-10-16 13:25:00,
2013-10-16 09:27:00,61.2,58.0,29.92,SSE,158,0.0,0.0,89,0.00,,,0.00,WUHU216HW,2013-10-16 13:27:00,
2013-10-16 09:28:00,61.2,58.0,29.92,SSE,158,0.0,0.0,89,0.00,,,0.00,WUHU216HW,2013-10-16 13:28:00,
2013-10-16 09:29:00,61.2,58.0,29.92,SSE,158,0.0,0.0,89,0.00,,,0.00,WUHU216HW,2013-10-16 13:29:00,
2013-10-16 09:31:00,61.2,58.0,29.92,SSE,158,0.0,0.0,89,0.00,,,0.00,WUHU216HW,2013-10-16 13:31:00,
2013-10-16 09:32:00,61.4,58.1,29.92,SSE,158,0.0,0.0,89,0.00,,,0.00,WUHU216HW,2013-10-16 13:32:00,
2013-10-16 09:33:00,61.4,58.1,29.92,SSE,158,0.0,0.0,89,0.00,,,0.00,WUHU216HW,2013-10-16 13:33:00,
2013-10-16 09:34:00,61.4,58.1,29.92,SSE,158,0.0,0.0,89,0.00,,,0.00,WUHU216HW,2013-10-16 13:34:00,
2013-10-16 09:35:00,61.4,58.1,29.92,SSE,158,0.0,0.0,89,0.00,,,0.00,WUHU216HW,2013-10-16 13:35:00,
2013-10-16 09:36:00,61.4,58.1,29.92,SSE,158,0.0,0.0,89,0.00,,,0.00,WUHU216HW,2013-10-16 13:36:00,
2013-10-16 09:37:00,61.4,58.1,29.92,SSE,158,0.0,0.0,89,0.00,,,0.00,WUHU216HW,2013-10-16 13:37:00,
2013-10-16 09:38:00,61.4,58.1,29.92,SSE,158,0.0,0.0,89,0.00,,,0.00,WUHU216HW,2013-10-16 13:38:00,
2013-10-16 09:39:00,61.6,58.3,29.92,SSE,158,0.0,0.0,89,0.00,,,0.00,WUHU216HW,2013-10-16 13:39:00,
2013-10-16 09:40:00,61.6,58.3,29.92,SSE,158,0.0,0.0,89,0.00,,,0.00,WUHU216HW,2013-10-16 13:40:00,
2013-10-16 09:41:00,61.6,58.3,29.92,SSE,158,0.0,0.0,89,0.00,,,0.00,WUHU216HW,2013-10-16 13:41:00,
2013-10-16 09:42:00,61.6,58.3,29.92,SSE,158,0.0,0.0,89,0.00,,,0.00,WUHU216HW,2013-10-16 13:42:00,
2013-10-16 09:43:00,61.6,58.3,29.92,SSE,158,0.4,0.4,89,0.00,,,0.00,WUHU216HW,2013-10-16 13:43:00,
2013-10-16 09:44:00,61.6,58.3,29.92,SSE,158,0.9,0.9,89,0.00,,,0.00,WUHU216HW,2013-10-16 13:44:00,
2013-10-16 09:45:00,61.6,58.3,29.92,SSE,158,0.6,0.9,89,0.00,,,0.00,WUHU216HW,2013-10-16 13:45:00,
2013-10-16 09:47:00,61.7,58.5,29.92,SSE,158,0.6,0.9,89,0.00,,,0.00,WUHU216HW,2013-10-16 13:47:00,
2013-10-16 09:49:00,61.7,58.5,29.92,SSE,158,0.0,0.9,89,0.00,,,0.00,WUHU216HW,2013-10-16 13:49:00,
2013-10-16 09:51:00,61.9,58.7,29.92,SSE,158,0.0,0.9,89,0.00,,,0.00,WUHU216HW,2013-10-16 13:51:00,
2013-10-16 09:53:00,61.9,58.7,29.92,SSE,158,0.0,0.9,89,0.00,,,0.00,WUHU216HW,2013-10-16 13:53:00,
2013-10-16 09:54:00,62.1,58.6,29.92,West,270,0.9,0.9,88,0.00,,,0.00,WUHU216HW,2013-10-16 13:54:00,
2013-10-16 09:56:00,62.1,58.6,29.92,NE,45,0.4,0.9,88,0.00,,,0.00,WUHU216HW,2013-10-16 13:56:00,
2013-10-16 09:58:00,62.3,58.7,29.92,WNW,293,0.4,0.9,88,0.00,,,0.00,WUHU216HW,2013-10-16 13:58:00,
2013-10-16 10:00:00,62.3,58.7,29.92,SSW,203,0.2,0.9,88,0.00,,,0.00,WUHU216HW,2013-10-16 14:00:00,
2013-10-16 10:01:00,62.3,58.7,29.92,South,180,0.4,0.9,88,0.00,,,0.00,WUHU216HW,2013-10-16 14:01:00,
2013-10-16 10:02:00,62.3,58.7,29.92,South,180,0.4,0.9,88,0.00,,,0.00,WUHU216HW,2013-10-16 14:02:00,
2013-10-16 10:05:00,62.5,58.6,29.92,WNW,293,0.2,0.4,87,0.00,,,0.00,WUHU216HW,2013-10-16 14:05:00,
2013-10-16 10:06:00,62.5,58.6,29.92,WNW,293,0.0,0.4,87,0.00,,,0.00,WUHU216HW,2013-10-16 14:06:00,
2013-10-16 10:07:00,62.5,58.6,29.92,SSW,203,0.4,0.4,87,0.00,,,0.00,WUHU216HW,2013-10-16 14:07:00,
2013-10-16 10:08:00,62.5,58.6,29.92,SSW,203,0.4,0.4,87,0.00,,,0.00,WUHU216HW,2013-10-16 14:08:00,
2013-10-16 10:10:00,62.5,58.6,29.92,SE,135,0.0,0.4,87,0.00,,,0.00,WUHU216HW,2013-10-16 14:10:00,
2013-10-16 10:11:00,62.6,58.8,29.92,SE,135,0.0,0.4,87,0.00,,,0.00,WUHU216HW,2013-10-16 14:11:00,
2013-10-16 10:12:00,62.6,58.8,29.92,SE,135,0.0,0.4,87,0.00,,,0.00,WUHU216HW,2013-10-16 14:12:00,
2013-10-16 10:13:00,62.6,58.8,29.92,SSE,158,0.0,0.4,87,0.00,,,0.00,WUHU216HW,2013-10-16 14:13:00,
2013-10-16 10:14:00,62.8,59.0,29.92,SSE,158,0.4,0.4,87,0.00,,,0.00,WUHU216HW,2013-10-16 14:14:00,
2013-10-16 10:16:00,62.8,59.0,29.92,SSE,158,0.9,0.9,87,0.00,,,0.00,WUHU216HW,2013-10-16 14:16:00,
2013-10-16 10:17:00,63.0,59.1,29.92,South,180,1.1,1.1,87,0.00,,,0.00,WUHU216HW,2013-10-16 14:17:00,
2013-10-16 10:18:00,63.0,59.1,29.92,South,180,0.7,1.1,87,0.00,,,0.00,WUHU216HW,2013-10-16 14:18:00,
2013-10-16 10:19:00,63.0,59.1,29.92,South,180,0.2,1.1,87,0.00,,,0.00,WUHU216HW,2013-10-16 14:19:00,
2013-10-16 10:20:00,63.0,59.1,29.92,South,180,0.2,1.1,87,0.00,,,0.00,WUHU216HW,2013-10-16 14:20:00,
2013-10-16 10:22:00,63.2,59.3,29.92,SE,135,0.0,1.1,87,0.00,,,0.00,WUHU216HW,2013-10-16 14:22:00,
2013-10-16 10:23:00,63.2,59.3,29.92,SSE,158,0.0,1.1,87,0.00,,,0.00,WUHU216HW,2013-10-16 14:23:00,
2013-10-16 10:24:00,63.4,59.5,29.92,SSE,158,0.2,1.1,87,0.00,,,0.00,WUHU216HW,2013-10-16 14:24:00,
2013-10-16 10:25:00,63.2,59.3,29.92,SSE,158,0.2,1.1,87,0.00,,,0.00,WUHU216HW,2013-10-16 14:25:00,
2013-10-16 10:26:00,63.4,59.1,29.92,SSE,158,0.2,1.1,86,0.00,,,0.00,WUHU216HW,2013-10-16 14:26:00,
2013-10-16 10:27:00,63.4,59.5,29.92,ESE,113,0.2,0.2,87,0.00,,,0.00,WUHU216HW,2013-10-16 14:27:00,
2013-10-16 10:28:00,63.4,59.1,29.92,ESE,113,0.2,0.2,86,0.00,,,0.00,WUHU216HW,2013-10-16 14:28:00,
2013-10-16 10:29:00,63.5,59.3,29.92,SE,135,0.0,0.2,86,0.00,,,0.00,WUHU216HW,2013-10-16 14:29:00,
2013-10-16 10:31:00,63.5,59.3,29.92,SSE,158,0.0,0.2,86,0.00,,,0.00,WUHU216HW,2013-10-16 14:31:00,
2013-10-16 10:32:00,63.7,59.5,29.92,SSE,158,0.2,0.2,86,0.00,,,0.00,WUHU216HW,2013-10-16 14:32:00,
2013-10-16 10:33:00,63.7,59.5,29.91,SSE,158,1.1,1.1,86,0.00,,,0.00,WUHU216HW,2013-10-16 14:33:00,
2013-10-16 10:34:00,63.9,59.7,29.91,ESE,113,1.3,1.3,86,0.00,,,0.00,WUHU216HW,2013-10-16 14:34:00,
2013-10-16 10:37:00,64.3,60.0,29.91,East,90,0.4,1.3,86,0.00,,,0.00,WUHU216HW,2013-10-16 14:37:00,
2013-10-16 10:38:00,64.4,59.9,29.91,NE,45,0.0,1.3,85,0.00,,,0.00,WUHU216HW,2013-10-16 14:38:00,
2013-10-16 10:39:00,64.4,59.9,29.91,WSW,248,1.6,1.6,85,0.00,,,0.00,WUHU216HW,2013-10-16 14:39:00,
2013-10-16 10:40:00,64.4,59.9,29.91,WSW,248,1.6,1.6,85,0.00,,,0.00,WUHU216HW,2013-10-16 14:40:00,
2013-10-16 10:44:00,64.8,60.6,29.91,SE,135,0.0,1.6,86,0.00,,,0.00,WUHU216HW,2013-10-16 14:44:00,
2013-10-16 10:45:00,64.8,60.6,29.91,SE,135,0.0,1.6,86,0.00,,,0.00,WUHU216HW,2013-10-16 14:45:00,
2013-10-16 10:46:00,65.2,60.8,29.92,West,270,0.3,1.6,86,0.00,,,0.00,WUHU216HW,2013-10-16 14:46:00,
2013-10-16 10:49:00,65.2,60.6,29.92,WSW,248,0.7,1.6,85,0.00,,,0.00,WUHU216HW,2013-10-16 14:49:00,
2013-10-16 10:50:00,65.2,60.6,29.92,WSW,248,0.2,0.7,85,0.00,,,0.00,WUHU216HW,2013-10-16 14:50:00,
2013-10-16 10:51:00,65.2,60.6,29.92,WSW,248,0.2,0.7,85,0.00,,,0.00,WUHU216HW,2013-10-16 14:51:00,
2013-10-16 10:52:00,65.3,60.8,29.92,WSW,248,0.9,0.9,85,0.00,,,0.00,WUHU216HW,2013-10-16 14:52:00,
2013-10-16 10:55:00,65.3,60.4,29.92,NNE,23,0.0,0.9,84,0.00,,,0.00,WUHU216HW,2013-10-16 14:55:00,
2013-10-16 10:56:00,65.3,60.4,29.92,NNE,23,0.0,0.9,84,0.00,,,0.00,WUHU216HW,2013-10-16 14:56:00,
2013-10-16 10:57:00,65.3,60.4,29.92,SW,225,0.0,0.9,84,0.00,,,0.00,WUHU216HW,2013-10-16 14:57:00,
2013-10-16 10:58:00,65.3,60.4,29.92,WSW,248,0.8,0.9,84,0.00,,,0.00,WUHU216HW,2013-10-16 14:58:00,
2013-10-16 10:59:00,65.3,60.4,29.92,WSW,248,0.9,0.9,84,0.00,,,0.00,WUHU216HW,2013-10-16 14:59:00,
2013-10-16 11:00:00,65.3,60.4,29.92,WSW,248,0.8,0.9,84,0.00,,,0.00,WUHU216HW,2013-10-16 15:00:00,
2013-10-16 11:01:00,65.3,60.4,29.92,WSW,248,0.6,0.9,84,0.00,,,0.00,WUHU216HW,2013-10-16 15:01:00,
2013-10-16 11:02:00,65.5,60.6,29.92,WSW,248,0.4,0.9,84,0.00,,,0.00,WUHU216HW,2013-10-16 15:02:00,
2013-10-16 11:03:00,65.5,60.6,29.92,West,270,0.7,0.9,84,0.00,,,0.00,WUHU216HW,2013-10-16 15:03:00,
2013-10-16 11:04:00,65.5,60.6,29.92,West,262,0.6,0.9,84,0.00,,,0.00,WUHU216HW,2013-10-16 15:04:00,
2013-10-16 11:05:00,65.5,60.6,29.92,WSW,248,0.4,0.9,84,0.00,,,0.00,WUHU216HW,2013-10-16 15:05:00,
2013-10-16 11:07:00,65.9,60.9,29.92,SW,225,0.0,0.9,84,0.00,,,0.00,WUHU216HW,2013-10-16 15:07:00,
2013-10-16 11:08:00,65.9,60.9,29.92,WSW,248,0.2,0.9,84,0.00,,,0.00,WUHU216HW,2013-10-16 15:08:00,
2013-10-16 11:09:00,65.9,60.9,29.92,WSW,248,0.2,0.9,84,0.00,,,0.00,WUHU216HW,2013-10-16 15:09:00,
2013-10-16 11:10:00,66.1,61.0,29.91,WSW,248,0.2,0.7,84,0.00,,,0.00,WUHU216HW,2013-10-16 15:10:00,
2013-10-16 11:12:00,66.2,61.2,29.91,WNW,293,1.1,1.1,84,0.00,,,0.00,WUHU216HW,2013-10-16 15:12:00,
2013-10-16 11:13:00,66.2,61.2,29.91,WNW,293,0.8,1.1,84,0.00,,,0.00,WUHU216HW,2013-10-16 15:13:00,
2013-10-16 11:14:00,66.2,61.2,29.91,West,270,0.7,1.1,84,0.00,,,0.00,WUHU216HW,2013-10-16 15:14:00,
2013-10-16 11:15:00,66.4,61.4,29.92,West,270,2.0,2.0,84,0.00,,,0.00,WUHU216HW,2013-10-16 15:15:00,
2013-10-16 11:17:00,66.6,61.3,29.92,South,180,0.7,2.0,83,0.00,,,0.00,WUHU216HW,2013-10-16 15:17:00,
2013-10-16 11:18:00,66.6,61.3,29.92,WSW,248,1.1,2.0,83,0.00,,,0.00,WUHU216HW,2013-10-16 15:18:00,
2013-10-16 11:19:00,66.6,61.3,29.92,WSW,248,1.1,2.0,83,0.00,,,0.00,WUHU216HW,2013-10-16 15:19:00,
2013-10-16 11:20:00,66.6,61.3,29.92,West,270,0.0,2.0,83,0.00,,,0.00,WUHU216HW,2013-10-16 15:20:00,
2013-10-16 11:22:00,67.0,61.7,29.92,SSE,158,1.8,2.0,83,0.00,,,0.00,WUHU216HW,2013-10-16 15:22:00,
2013-10-16 11:24:00,67.0,61.3,29.91,SSE,158,2.2,2.2,82,0.00,,,0.00,WUHU216HW,2013-10-16 15:24:00,
2013-10-16 11:25:00,67.0,61.3,29.91,SSW,198,1.1,2.2,82,0.00,,,0.00,WUHU216HW,2013-10-16 15:25:00,
2013-10-16 11:26:00,67.1,61.5,29.91,SSW,203,3.4,3.4,82,0.00,,,0.00,WUHU216HW,2013-10-16 15:26:00,
2013-10-16 11:28:00,67.3,61.7,29.91,SSE,158,1.3,3.4,82,0.00,,,0.00,WUHU216HW,2013-10-16 15:28:00,
2013-10-16 11:29:00,67.5,61.8,29.91,SSE,158,1.8,3.4,82,0.00,,,0.00,WUHU216HW,2013-10-16 15:29:00,
2013-10-16 11:30:00,67.7,62.0,29.91,SSW,193,1.5,3.4,82,0.00,,,0.00,WUHU216HW,2013-10-16 15:30:00,
2013-10-16 11:31:00,67.7,62.0,29.91,SSW,193,1.5,3.4,82,0.00,,,0.00,WUHU216HW,2013-10-16 15:31:00,
2013-10-16 11:34:00,68.0,62.1,29.91,WNW,293,1.8,3.4,81,0.00,,,0.00,WUHU216HW,2013-10-16 15:34:00,
2013-10-16 11:36:00,68.0,62.1,29.91,SSW,203,1.8,2.0,81,0.00,,,0.00,WUHU216HW,2013-10-16 15:36:00,
2013-10-16 11:39:00,68.0,62.1,29.91,SW,225,0.9,2.0,81,0.00,,,0.00,WUHU216HW,2013-10-16 15:39:00,
2013-10-16 11:40:00,68.2,61.9,29.91,SW,221,0.6,2.0,80,0.00,,,0.00,WUHU216HW,2013-10-16 15:40:00,
2013-10-16 11:41:00,68.2,61.9,29.91,WSW,248,1.1,2.0,80,0.00,,,0.00,WUHU216HW,2013-10-16 15:41:00,
2013-10-16 11:44:00,68.4,62.1,29.91,SSE,158,0.6,1.8,80,0.00,,,0.00,WUHU216HW,2013-10-16 15:44:00,
2013-10-16 11:45:00,68.4,62.1,29.91,West,270,0.4,1.8,80,0.00,,,0.00,WUHU216HW,2013-10-16 15:45:00,
2013-10-16 11:46:00,68.6,62.2,29.91,WSW,248,0.9,1.1,80,0.00,,,0.00,WUHU216HW,2013-10-16 15:46:00,
2013-10-16 11:47:00,68.6,62.2,29.91,WSW,248,1.1,1.1,80,0.00,,,0.00,WUHU216HW,2013-10-16 15:47:00,
2013-10-16 11:49:00,68.8,62.4,29.91,WNW,293,1.8,1.8,80,0.00,,,0.00,WUHU216HW,2013-10-16 15:49:00,
2013-10-16 11:50:00,68.8,62.4,29.91,WNW,293,1.8,1.8,80,0.00,,,0.00,WUHU216HW,2013-10-16 15:50:00,
2013-10-16 11:51:00,68.8,62.0,29.91,SE,139,1.0,1.8,79,0.00,,,0.00,WUHU216HW,2013-10-16 15:51:00,
2013-10-16 11:53:00,68.8,62.0,29.91,SE,135,1.8,1.8,79,0.00,,,0.00,WUHU216HW,2013-10-16 15:53:00,
2013-10-16 11:54:00,68.8,62.0,29.91,SE,132,1.0,1.8,79,0.00,,,0.00,WUHU216HW,2013-10-16 15:54:00,
2013-10-16 11:55:00,68.8,62.0,29.90,NNW,338,0.2,1.8,79,0.00,,,0.00,WUHU216HW,2013-10-16 15:55:00,
2013-10-16 11:57:00,68.9,62.2,29.90,SW,225,2.7,2.7,79,0.00,,,0.00,WUHU216HW,2013-10-16 15:57:00,
2013-10-16 11:58:00,68.9,61.8,29.90,SE,135,2.7,2.7,78,0.00,,,0.00,WUHU216HW,2013-10-16 15:58:00,
2013-10-16 12:00:00,69.1,61.9,29.90,South,170,4.0,4.5,78,0.00,,,0.00,WUHU216HW,2013-10-16 16:00:00,
2013-10-16 12:01:00,69.1,61.9,29.90,South,176,3.0,4.5,78,0.00,,,0.00,WUHU216HW,2013-10-16 16:01:00,
2013-10-16 12:02:00,69.1,61.9,29.90,South,171,2.3,4.5,78,0.00,,,0.00,WUHU216HW,2013-10-16 16:02:00,
2013-10-16 12:03:00,69.3,62.1,29.90,SSE,154,1.9,4.5,78,0.00,,,0.00,WUHU216HW,2013-10-16 16:03:00,
2013-10-16 12:05:00,69.5,62.3,29.90,ESE,113,3.4,4.5,78,0.00,,,0.00,WUHU216HW,2013-10-16 16:05:00,
2013-10-16 12:07:00,69.5,61.9,29.90,SE,136,2.7,4.5,77,0.00,,,0.00,WUHU216HW,2013-10-16 16:07:00,
2013-10-16 12:08:00,69.5,61.9,29.90,SSE,158,1.8,4.5,77,0.00,,,0.00,WUHU216HW,2013-10-16 16:08:00,
2013-10-16 12:09:00,69.5,61.9,29.90,SE,131,2.2,3.4,77,0.00,,,0.00,WUHU216HW,2013-10-16 16:09:00,
2013-10-16 12:10:00,69.5,61.9,29.90,West,270,2.2,3.4,77,0.00,,,0.00,WUHU216HW,2013-10-16 16:10:00,
2013-10-16 12:13:00,69.3,61.7,29.90,SSW,194,1.5,3.4,77,0.00,,,0.00,WUHU216HW,2013-10-16 16:13:00,
2013-10-16 12:14:00,69.3,61.7,29.90,ESE,113,1.1,3.4,77,0.00,,,0.00,WUHU216HW,2013-10-16 16:14:00,
2013-10-16 12:15:00,69.5,61.9,29.90,SE,135,2.0,2.5,77,0.00,,,0.00,WUHU216HW,2013-10-16 16:15:00,
2013-10-16 12:16:00,69.5,61.9,29.90,SSE,158,4.0,4.0,77,0.00,,,0.00,WUHU216HW,2013-10-16 16:16:00,
2013-10-16 12:19:00,69.5,61.9,29.90,SSW,203,1.1,4.0,77,0.00,,,0.00,WUHU216HW,2013-10-16 16:19:00,
2013-10-16 12:20:00,69.5,61.9,29.90,South,180,4.3,4.3,77,0.00,,,0.00,WUHU216HW,2013-10-16 16:20:00,
2013-10-16 12:22:00,69.7,61.7,29.90,SSW,203,2.5,4.3,76,0.00,,,0.00,WUHU216HW,2013-10-16 16:22:00,
2013-10-16 12:25:00,69.7,61.3,29.90,SSW,192,3.7,4.3,75,0.00,,,0.00,WUHU216HW,2013-10-16 16:25:00,
2013-10-16 12:27:00,69.7,61.3,29.90,SSE,158,4.0,4.3,75,0.00,,,0.00,WUHU216HW,2013-10-16 16:27:00,
2013-10-16 12:28:00,69.7,61.3,29.90,SSE,165,3.1,4.3,75,0.00,,,0.00,WUHU216HW,2013-10-16 16:28:00,
2013-10-16 12:32:00,70.0,62.0,29.90,SSE,158,1.3,4.0,76,0.00,,,0.00,WUHU216HW,2013-10-16 16:32:00,
2013-10-16 12:33:00,70.0,62.0,29.90,SSE,158,1.3,4.0,76,0.00,,,0.00,WUHU216HW,2013-10-16 16:33:00,
2013-10-16 12:34:00,70.0,61.7,29.90,SE,135,2.5,4.0,75,0.00,,,0.00,WUHU216HW,2013-10-16 16:34:00,
2013-10-16 12:38:00,70.2,61.8,29.90,South,171,3.3,4.0,75,0.00,,,0.00,WUHU216HW,2013-10-16 16:38:00,
2013-10-16 12:39:00,70.4,62.0,29.90,SE,140,1.7,4.0,75,0.00,,,0.00,WUHU216HW,2013-10-16 16:39:00,
2013-10-16 12:40:00,70.4,62.0,29.90,SSE,158,0.4,4.0,75,0.00,,,0.00,WUHU216HW,2013-10-16 16:40:00,
2013-10-16 12:42:00,70.4,62.0,29.90,WSW,248,1.1,4.0,75,0.00,,,0.00,WUHU216HW,2013-10-16 16:42:00,
2013-10-16 12:43:00,70.6,62.2,29.90,West,259,0.8,4.0,75,0.00,,,0.00,WUHU216HW,2013-10-16 16:43:00,
2013-10-16 12:44:00,70.6,62.2,29.90,ESE,113,0.9,4.0,75,0.00,,,0.00,WUHU216HW,2013-10-16 16:44:00,
2013-10-16 12:45:00,70.7,62.4,29.90,SSE,160,1.8,4.0,75,0.00,,,0.00,WUHU216HW,2013-10-16 16:45:00,
2013-10-16 12:48:00,70.7,62.0,29.90,South,174,1.5,2.7,74,0.00,,,0.00,WUHU216HW,2013-10-16 16:48:00,
2013-10-16 12:49:00,70.9,62.2,29.89,SSE,158,2.5,2.5,74,0.00,,,0.00,WUHU216HW,2013-10-16 16:49:00,
2013-10-16 12:50:00,70.7,62.0,29.89,SW,225,1.9,2.7,74,0.00,,,0.00,WUHU216HW,2013-10-16 16:50:00,
2013-10-16 12:53:00,70.9,62.2,29.89,South,180,0.4,2.7,74,0.00,,,0.00,WUHU216HW,2013-10-16 16:53:00,
2013-10-16 12:55:00,70.9,62.2,29.89,West,270,1.8,2.7,74,0.00,,,0.00,WUHU216HW,2013-10-16 16:55:00,
2013-10-16 12:56:00,71.1,62.4,29.89,West,264,1.0,2.7,74,0.00,,,0.00,WUHU216HW,2013-10-16 16:56:00,
2013-10-16 12:58:00,71.3,62.6,29.89,WSW,248,4.7,4.7,74,0.00,,,0.00,WUHU216HW,2013-10-16 16:58:00,
2013-10-16 12:59:00,71.3,62.6,29.89,WSW,248,4.7,4.7,74,0.00,,,0.00,WUHU216HW,2013-10-16 16:59:00,
2013-10-16 13:01:00,71.5,62.7,29.89,WNW,293,2.5,4.7,74,0.00,,,0.00,WUHU216HW,2013-10-16 17:01:00,
2013-10-16 13:02:00,71.5,62.4,29.89,WNW,293,2.2,4.7,73,0.00,,,0.00,WUHU216HW,2013-10-16 17:02:00,
2013-10-16 13:03:00,71.3,62.2,29.89,ESE,119,1.1,4.7,73,0.00,,,0.00,WUHU216HW,2013-10-16 17:03:00,
2013-10-16 13:05:00,71.6,62.6,29.89,WSW,248,1.1,4.7,73,0.00,,,0.00,WUHU216HW,2013-10-16 17:05:00,
2013-10-16 13:06:00,71.5,62.4,29.89,WSW,251,0.7,4.7,73,0.00,,,0.00,WUHU216HW,2013-10-16 17:06:00,
2013-10-16 13:08:00,71.6,62.6,29.89,West,270,2.2,2.5,73,0.00,,,0.00,WUHU216HW,2013-10-16 17:08:00,
2013-10-16 13:09:00,71.6,62.6,29.88,SW,225,2.5,2.5,73,0.00,,,0.00,WUHU216HW,2013-10-16 17:09:00,
2013-10-16 13:10:00,71.6,62.6,29.89,SSW,199,1.8,2.5,73,0.00,,,0.00,WUHU216HW,2013-10-16 17:10:00,
2013-10-16 13:11:00,71.6,62.6,29.88,ESE,113,1.1,2.5,73,0.00,,,0.00,WUHU216HW,2013-10-16 17:11:00,
2013-10-16 13:13:00,71.8,62.7,29.88,SE,135,2.9,2.9,73,0.00,,,0.00,WUHU216HW,2013-10-16 17:13:00,
2013-10-16 13:14:00,71.8,62.3,29.89,WNW,293,2.9,2.9,72,0.00,,,0.00,WUHU216HW,2013-10-16 17:14:00,
2013-10-16 13:15:00,71.8,62.3,29.88,West,273,2.6,2.9,72,0.00,,,0.00,WUHU216HW,2013-10-16 17:15:00,
2013-10-16 13:16:00,71.8,61.9,29.88,WSW,258,2.1,2.9,71,0.00,,,0.00,WUHU216HW,2013-10-16 17:16:00,
2013-10-16 13:18:00,71.8,62.3,29.88,SW,225,2.0,2.9,72,0.00,,,0.00,WUHU216HW,2013-10-16 17:18:00,
2013-10-16 13:19:00,71.8,62.3,29.88,SSW,195,1.8,2.9,72,0.00,,,0.00,WUHU216HW,2013-10-16 17:19:00,
2013-10-16 13:21:00,71.8,62.3,29.88,SW,225,1.8,2.9,72,0.00,,,0.00,WUHU216HW,2013-10-16 17:21:00,
2013-10-16 13:22:00,71.8,62.3,29.88,South,180,3.1,3.1,72,0.00,,,0.00,WUHU216HW,2013-10-16 17:22:00,
2013-10-16 13:23:00,71.8,62.3,29.88,South,178,1.6,3.1,72,0.00,,,0.00,WUHU216HW,2013-10-16 17:23:00,
2013-10-16 13:24:00,72.0,63.3,29.88,SE,135,0.2,3.1,74,0.00,,,0.00,WUHU216HW,2013-10-16 17:24:00,
2013-10-16 13:27:00,72.4,63.6,29.88,ESE,113,1.1,3.1,74,0.00,,,0.00,WUHU216HW,2013-10-16 17:27:00,
2013-10-16 13:28:00,72.5,63.5,29.88,SE,135,2.5,3.1,73,0.00,,,0.00,WUHU216HW,2013-10-16 17:28:00,
2013-10-16 13:29:00,72.5,63.5,29.88,SE,135,2.5,3.1,73,0.00,,,0.00,WUHU216HW,2013-10-16 17:29:00,
2013-10-16 13:30:00,72.4,63.3,29.88,SE,135,2.3,3.1,73,0.00,,,0.00,WUHU216HW,2013-10-16 17:30:00,
2013-10-16 13:31:00,72.5,63.5,29.88,SSW,203,1.8,3.1,73,0.00,,,0.00,WUHU216HW,2013-10-16 17:31:00,
2013-10-16 13:32:00,72.5,63.5,29.88,SW,227,1.5,2.5,73,0.00,,,0.00,WUHU216HW,2013-10-16 17:32:00,
2013-10-16 13:33:00,72.5,63.5,29.88,SSW,203,1.8,2.5,73,0.00,,,0.00,WUHU216HW,2013-10-16 17:33:00,
2013-10-16 13:34:00,72.5,63.5,29.88,SSW,203,1.8,2.5,73,0.00,,,0.00,WUHU216HW,2013-10-16 17:34:00,
2013-10-16 13:36:00,72.5,63.5,29.88,WNW,282,0.6,2.5,73,0.00,,,0.00,WUHU216HW,2013-10-16 17:36:00,
2013-10-16 13:37:00,72.5,63.5,29.87,SSW,203,1.3,2.5,73,0.00,,,0.00,WUHU216HW,2013-10-16 17:37:00,
2013-10-16 13:38:00,72.5,63.5,29.87,South,182,1.2,2.2,73,0.00,,,0.00,WUHU216HW,2013-10-16 17:38:00,
2013-10-16 13:39:00,72.5,63.5,29.87,South,182,1.2,1.8,73,0.00,,,0.00,WUHU216HW,2013-10-16 17:39:00,
2013-10-16 13:40:00,72.7,63.6,29.87,SSE,168,0.7,1.8,73,0.00,,,0.00,WUHU216HW,2013-10-16 17:40:00,
2013-10-16 13:42:00,73.1,64.0,29.87,SSE,155,1.0,1.8,73,0.00,,,0.00,WUHU216HW,2013-10-16 17:42:00,
2013-10-16 13:43:00,73.1,63.5,29.87,South,180,0.9,1.8,72,0.00,,,0.00,WUHU216HW,2013-10-16 17:43:00,
2013-10-16 13:44:00,73.1,63.5,29.87,SSW,203,1.3,1.8,72,0.00,,,0.00,WUHU216HW,2013-10-16 17:44:00,
2013-10-16 13:45:00,73.3,63.7,29.87,West,270,1.8,1.8,72,0.00,,,0.00,WUHU216HW,2013-10-16 17:45:00,
2013-10-16 13:46:00,73.3,63.7,29.87,West,270,1.7,1.8,72,0.00,,,0.00,WUHU216HW,2013-10-16 17:46:00,
2013-10-16 13:48:00,73.4,63.9,29.87,SSE,158,1.8,1.8,72,0.00,,,0.00,WUHU216HW,2013-10-16 17:48:00,
2013-10-16 13:49:00,73.4,63.9,29.87,SSE,165,1.3,1.8,72,0.00,,,0.00,WUHU216HW,2013-10-16 17:49:00,
2013-10-16 13:50:00,73.4,63.9,29.87,SE,135,1.1,1.8,72,0.00,,,0.00,WUHU216HW,2013-10-16 17:50:00,
2013-10-16 13:52:00,73.6,64.1,29.87,SW,225,1.8,1.8,72,0.00,,,0.00,WUHU216HW,2013-10-16 17:52:00,
2013-10-16 13:53:00,73.6,64.1,29.87,SW,225,1.8,1.8,72,0.00,,,0.00,WUHU216HW,2013-10-16 17:53:00,
2013-10-16 13:55:00,73.6,63.7,29.87,SSW,207,0.3,1.8,71,0.00,,,0.00,WUHU216HW,2013-10-16 17:55:00,
2013-10-16 13:56:00,73.6,63.7,29.87,SSW,203,0.4,1.8,71,0.00,,,0.00,WUHU216HW,2013-10-16 17:56:00,
2013-10-16 13:57:00,73.4,63.5,29.87,SW,225,0.7,1.8,71,0.00,,,0.00,WUHU216HW,2013-10-16 17:57:00,
2013-10-16 13:58:00,73.4,63.5,29.87,SW,225,0.7,1.8,71,0.00,,,0.00,WUHU216HW,2013-10-16 17:58:00,
2013-10-16 14:00:00,73.6,63.7,29.87,ESE,113,1.8,1.8,71,0.00,,,0.00,WUHU216HW,2013-10-16 18:00:00,
2013-10-16 14:01:00,73.6,63.7,29.87,SSE,158,2.5,2.5,71,0.00,,,0.00,WUHU216HW,2013-10-16 18:01:00,
2013-10-16 14:03:00,73.6,63.7,29.87,SW,225,1.8,2.5,71,0.00,,,0.00,WUHU216HW,2013-10-16 18:03:00,
2013-10-16 14:06:00,73.8,63.9,29.87,West,270,2.5,2.5,71,0.00,,,0.00,WUHU216HW,2013-10-16 18:06:00,
2013-10-16 14:07:00,73.8,63.9,29.86,West,270,1.7,2.5,71,0.00,,,0.00,WUHU216HW,2013-10-16 18:07:00,
2013-10-16 14:08:00,73.8,63.9,29.86,WSW,248,2.2,2.5,71,0.00,,,0.00,WUHU216HW,2013-10-16 18:08:00,
2013-10-16 14:09:00,73.8,63.9,29.86,SE,135,2.5,2.5,71,0.00,,,0.00,WUHU216HW,2013-10-16 18:09:00,
2013-10-16 14:11:00,73.8,63.9,29.86,South,182,2.0,2.5,71,0.00,,,0.00,WUHU216HW,2013-10-16 18:11:00,
2013-10-16 14:13:00,73.8,63.9,29.86,SSE,165,2.6,3.4,71,0.00,,,0.00,WUHU216HW,2013-10-16 18:13:00,
2013-10-16 14:14:00,74.0,64.1,29.86,ESE,113,2.0,3.4,71,0.00,,,0.00,WUHU216HW,2013-10-16 18:14:00,
2013-10-16 14:17:00,74.0,63.6,29.86,SE,142,1.7,3.4,70,0.00,,,0.00,WUHU216HW,2013-10-16 18:17:00,
2013-10-16 14:18:00,74.0,63.6,29.86,SE,146,0.8,3.4,70,0.00,,,0.00,WUHU216HW,2013-10-16 18:18:00,
2013-10-16 14:19:00,74.2,63.8,29.86,South,180,0.4,3.4,70,0.00,,,0.00,WUHU216HW,2013-10-16 18:19:00,
2013-10-16 14:20:00,74.2,63.8,29.86,SSE,158,2.0,3.4,70,0.00,,,0.00,WUHU216HW,2013-10-16 18:20:00,
2013-10-16 14:23:00,74.2,63.4,29.86,South,180,1.6,2.7,69,0.00,,,0.00,WUHU216HW,2013-10-16 18:23:00,
2013-10-16 14:24:00,74.0,63.2,29.86,SSE,153,1.4,2.7,69,0.00,,,0.00,WUHU216HW,2013-10-16 18:24:00,
2013-10-16 14:25:00,74.0,63.2,29.86,SSE,153,1.4,2.7,69,0.00,,,0.00,WUHU216HW,2013-10-16 18:25:00,
2013-10-16 14:27:00,74.0,63.6,29.86,ESE,113,0.4,2.7,70,0.00,,,0.00,WUHU216HW,2013-10-16 18:27:00,
2013-10-16 14:30:00,74.0,63.6,29.86,WSW,248,1.8,2.7,70,0.00,,,0.00,WUHU216HW,2013-10-16 18:30:00,
2013-10-16 14:31:00,74.0,63.6,29.86,WSW,248,1.5,1.8,70,0.00,,,0.00,WUHU216HW,2013-10-16 18:31:00,
2013-10-16 14:32:00,73.8,63.6,29.86,South,177,1.6,2.0,70,0.00,,,0.00,WUHU216HW,2013-10-16 18:32:00,
2013-10-16 14:35:00,73.8,63.6,29.85,SSW,210,1.0,2.0,70,0.00,,,0.00,WUHU216HW,2013-10-16 18:35:00,
2013-10-16 14:36:00,73.8,63.1,29.85,South,180,0.9,2.0,69,0.00,,,0.00,WUHU216HW,2013-10-16 18:36:00,
2013-10-16 14:37:00,73.8,63.1,29.85,South,180,0.9,2.0,69,0.00,,,0.00,WUHU216HW,2013-10-16 18:37:00,
2013-10-16 14:38:00,73.8,63.6,29.85,SW,225,3.4,3.4,70,0.00,,,0.00,WUHU216HW,2013-10-16 18:38:00,
2013-10-16 14:39:00,73.8,63.6,29.85,SW,225,3.4,3.4,70,0.00,,,0.00,WUHU216HW,2013-10-16 18:39:00,
2013-10-16 14:41:00,73.8,63.6,29.85,SE,135,1.3,3.4,70,0.00,,,0.00,WUHU216HW,2013-10-16 18:41:00,
2013-10-16 14:42:00,73.8,63.6,29.85,SE,135,1.3,3.4,70,0.00,,,0.00,WUHU216HW,2013-10-16 18:42:00,
2013-10-16 14:43:00,73.8,63.6,29.85,SW,225,1.6,3.4,70,0.00,,,0.00,WUHU216HW,2013-10-16 18:43:00,
2013-10-16 14:44:00,73.8,63.6,29.85,South,180,3.1,3.4,70,0.00,,,0.00,WUHU216HW,2013-10-16 18:44:00,
2013-10-16 14:45:00,73.8,63.6,29.85,South,186,1.8,3.4,70,0.00,,,0.00,WUHU216HW,2013-10-16 18:45:00,
2013-10-16 14:46:00,74.0,63.6,29.85,SSW,203,3.1,3.4,70,0.00,,,0.00,WUHU216HW,2013-10-16 18:46:00,
2013-10-16 14:48:00,74.0,63.2,29.85,SSW,206,1.8,3.1,69,0.00,,,0.00,WUHU216HW,2013-10-16 18:48:00,
2013-10-16 14:49:00,74.0,63.2,29.85,SSW,206,1.8,3.1,69,0.00,,,0.00,WUHU216HW,2013-10-16 18:49:00,
2013-10-16 14:50:00,74.0,63.6,29.85,West,270,0.9,3.1,70,0.00,,,0.00,WUHU216HW,2013-10-16 18:50:00,
2013-10-16 14:51:00,74.0,63.6,29.85,West,270,0.9,3.1,70,0.00,,,0.00,WUHU216HW,2013-10-16 18:51:00,
2013-10-16 14:52:00,74.2,63.8,29.85,West,263,0.6,3.1,70,0.00,,,0.00,WUHU216HW,2013-10-16 18:52:00,
2013-10-16 14:54:00,74.2,63.8,29.85,ESE,113,1.3,3.1,70,0.00,,,0.00,WUHU216HW,2013-10-16 18:54:00,
2013-10-16 14:56:00,74.3,64.0,29.85,SE,135,3.4,3.4,70,0.00,,,0.00,WUHU216HW,2013-10-16 18:56:00,
2013-10-16 14:57:00,74.3,64.0,29.85,SSE,163,2.6,3.4,70,0.00,,,0.00,WUHU216HW,2013-10-16 18:57:00,
2013-10-16 14:58:00,74.5,64.2,29.85,SSE,158,1.8,3.4,70,0.00,,,0.00,WUHU216HW,2013-10-16 18:58:00,
2013-10-16 15:00:00,74.5,64.2,29.85,SE,135,1.6,3.4,70,0.00,,,0.00,WUHU216HW,2013-10-16 19:00:00,
2013-10-16 15:01:00,74.5,64.2,29.85,South,176,1.4,3.4,70,0.00,,,0.00,WUHU216HW,2013-10-16 19:01:00,
2013-10-16 15:02:00,74.7,64.4,29.85,East,90,1.6,3.4,70,0.00,,,0.00,WUHU216HW,2013-10-16 19:02:00,
2013-10-16 15:03:00,74.7,63.9,29.85,SSW,203,2.0,3.4,69,0.00,,,0.00,WUHU216HW,2013-10-16 19:03:00,
2013-10-16 15:05:00,74.5,63.7,29.84,SW,225,2.5,3.4,69,0.00,,,0.00,WUHU216HW,2013-10-16 19:05:00,
2013-10-16 15:06:00,74.7,63.9,29.84,West,270,0.9,2.5,69,0.00,,,0.00,WUHU216HW,2013-10-16 19:06:00,
2013-10-16 15:07:00,74.7,63.9,29.84,West,270,0.9,2.5,69,0.00,,,0.00,WUHU216HW,2013-10-16 19:07:00,
2013-10-16 15:08:00,74.7,63.9,29.85,West,270,0.9,2.5,69,0.00,,,0.00,WUHU216HW,2013-10-16 19:08:00,
2013-10-16 15:11:00,74.7,63.5,29.84,SW,225,1.8,2.5,68,0.00,,,0.00,WUHU216HW,2013-10-16 19:11:00,
2013-10-16 15:12:00,74.5,63.3,29.84,SW,225,1.5,2.5,68,0.00,,,0.00,WUHU216HW,2013-10-16 19:12:00,
2013-10-16 15:13:00,74.3,63.1,29.84,WSW,245,0.8,2.5,68,0.00,,,0.00,WUHU216HW,2013-10-16 19:13:00,
2013-10-16 15:14:00,74.2,62.9,29.84,North,0,0.4,2.5,68,0.00,,,0.00,WUHU216HW,2013-10-16 19:14:00,
2013-10-16 15:17:00,74.0,63.2,29.84,SE,135,2.9,2.9,69,0.00,,,0.00,WUHU216HW,2013-10-16 19:17:00,
2013-10-16 15:18:00,74.0,63.2,29.84,SSE,168,2.3,2.9,69,0.00,,,0.00,WUHU216HW,2013-10-16 19:18:00,
2013-10-16 15:19:00,74.0,63.2,29.84,SW,214,1.3,2.9,69,0.00,,,0.00,WUHU216HW,2013-10-16 19:19:00,
2013-10-16 15:20:00,73.8,62.7,29.84,ESE,102,0.6,2.9,68,0.00,,,0.00,WUHU216HW,2013-10-16 19:20:00,
2013-10-16 15:21:00,73.8,63.1,29.84,West,270,1.1,2.9,69,0.00,,,0.00,WUHU216HW,2013-10-16 19:21:00,
2013-10-16 15:22:00,73.8,63.1,29.84,WSW,248,1.1,2.9,69,0.00,,,0.00,WUHU216HW,2013-10-16 19:22:00,
2013-10-16 15:24:00,73.6,63.4,29.84,SSW,203,1.6,2.9,70,0.00,,,0.00,WUHU216HW,2013-10-16 19:24:00,
2013-10-16 15:25:00,73.6,63.4,29.84,SSW,209,1.1,2.9,70,0.00,,,0.00,WUHU216HW,2013-10-16 19:25:00,
2013-10-16 15:26:00,73.6,63.4,29.84,SW,225,0.7,2.9,70,0.00,,,0.00,WUHU216HW,2013-10-16 19:26:00,
2013-10-16 15:27:00,73.8,63.6,29.84,SE,135,0.9,1.6,70,0.00,,,0.00,WUHU216HW,2013-10-16 19:27:00,
2013-10-16 15:28:00,73.8,63.6,29.84,SE,135,0.9,1.6,70,0.00,,,0.00,WUHU216HW,2013-10-16 19:28:00,
2013-10-16 15:30:00,73.8,63.9,29.84,SW,225,0.4,1.6,71,0.00,,,0.00,WUHU216HW,2013-10-16 19:30:00,
2013-10-16 15:31:00,73.8,63.9,29.84,SSW,203,1.8,1.8,71,0.00,,,0.00,WUHU216HW,2013-10-16 19:31:00,
2013-10-16 15:32:00,73.8,63.9,29.84,SSW,203,1.8,1.8,71,0.00,,,0.00,WUHU216HW,2013-10-16 19:32:00,
2013-10-16 15:33:00,74.0,64.1,29.84,West,270,0.4,1.8,71,0.00,,,0.00,WUHU216HW,2013-10-16 19:33:00,
2013-10-16 15:35:00,74.0,63.6,29.84,West,270,1.8,1.8,70,0.00,,,0.00,WUHU216HW,2013-10-16 19:35:00,
2013-10-16 15:36:00,74.0,63.6,29.84,SSW,199,1.5,2.5,70,0.00,,,0.00,WUHU216HW,2013-10-16 19:36:00,
2013-10-16 15:37:00,74.0,64.1,29.84,South,180,0.4,2.5,71,0.00,,,0.00,WUHU216HW,2013-10-16 19:37:00,
2013-10-16 15:39:00,74.0,64.1,29.84,South,180,4.5,4.5,71,0.00,,,0.00,WUHU216HW,2013-10-16 19:39:00,
2013-10-16 15:40:00,73.8,63.6,29.84,South,188,1.9,4.5,70,0.00,,,0.00,WUHU216HW,2013-10-16 19:40:00,
2013-10-16 15:41:00,73.8,63.6,29.84,South,188,1.9,4.5,70,0.00,,,0.00,WUHU216HW,2013-10-16 19:41:00,
2013-10-16 15:42:00,73.6,63.4,29.84,SSW,213,1.2,4.5,70,0.00,,,0.00,WUHU216HW,2013-10-16 19:42:00,
2013-10-16 15:43:00,73.6,63.4,29.84,ESE,113,1.3,4.5,70,0.00,,,0.00,WUHU216HW,2013-10-16 19:43:00,
2013-10-16 15:45:00,73.3,63.0,29.84,South,178,1.0,4.5,70,0.00,,,0.00,WUHU216HW,2013-10-16 19:45:00,
2013-10-16 15:46:00,73.3,63.0,29.84,South,178,1.0,4.5,70,0.00,,,0.00,WUHU216HW,2013-10-16 19:46:00,
2013-10-16 15:47:00,73.1,63.2,29.84,SW,216,0.6,4.5,71,0.00,,,0.00,WUHU216HW,2013-10-16 19:47:00,
2013-10-16 15:50:00,72.7,62.8,29.84,West,270,0.4,1.3,71,0.00,,,0.00,WUHU216HW,2013-10-16 19:50:00,
2013-10-16 15:51:00,72.7,62.8,29.84,West,270,0.4,1.3,71,0.00,,,0.00,WUHU216HW,2013-10-16 19:51:00,
2013-10-16 15:52:00,72.5,62.6,29.84,SE,135,0.2,1.3,71,0.00,,,0.00,WUHU216HW,2013-10-16 19:52:00,
2013-10-16 15:56:00,72.4,62.8,29.84,West,270,1.8,1.8,72,0.00,,,0.00,WUHU216HW,2013-10-16 19:56:00,
2013-10-16 15:57:00,72.4,62.8,29.84,SW,234,1.5,1.8,72,0.00,,,0.00,WUHU216HW,2013-10-16 19:57:00,
2013-10-16 15:58:00,72.2,62.6,29.84,SSE,168,0.7,1.8,72,0.00,,,0.00,WUHU216HW,2013-10-16 19:58:00,
2013-10-16 15:59:00,72.2,62.6,29.84,West,270,0.2,1.8,72,0.00,,,0.00,WUHU216HW,2013-10-16 19:59:00,
2013-10-16 16:01:00,71.8,61.9,29.84,SSW,193,0.9,1.8,71,0.00,,,0.00,WUHU216HW,2013-10-16 20:01:00,
2013-10-16 16:02:00,71.8,61.9,29.84,SE,143,0.6,1.8,71,0.00,,,0.00,WUHU216HW,2013-10-16 20:02:00,
2013-10-16 16:03:00,71.8,62.3,29.84,SSE,158,0.4,1.8,72,0.00,,,0.00,WUHU216HW,2013-10-16 20:03:00,
2013-10-16 16:04:00,71.6,62.1,29.84,WSW,248,0.4,1.8,72,0.00,,,0.00,WUHU216HW,2013-10-16 20:04:00,
2013-10-16 16:06:00,71.5,61.9,29.84,South,180,0.4,1.1,72,0.00,,,0.00,WUHU216HW,2013-10-16 20:06:00,
2013-10-16 16:07:00,71.5,61.9,29.84,South,180,0.4,1.1,72,0.00,,,0.00,WUHU216HW,2013-10-16 20:07:00,
2013-10-16 16:08:00,71.6,62.6,29.84,SE,135,0.9,1.1,73,0.00,,,0.00,WUHU216HW,2013-10-16 20:08:00,
2013-10-16 16:09:00,71.6,62.6,29.84,SSW,203,1.1,1.1,73,0.00,,,0.00,WUHU216HW,2013-10-16 20:09:00,
2013-10-16 16:12:00,71.3,62.2,29.84,SE,135,1.8,1.8,73,0.00,,,0.00,WUHU216HW,2013-10-16 20:12:00,
2013-10-16 16:13:00,71.3,62.2,29.84,SE,139,1.1,1.8,73,0.00,,,0.00,WUHU216HW,2013-10-16 20:13:00,
2013-10-16 16:15:00,71.3,62.2,29.84,SSE,158,1.1,1.8,73,0.00,,,0.00,WUHU216HW,2013-10-16 20:15:00,
2013-10-16 16:18:00,70.9,62.2,29.84,SE,135,1.1,1.8,74,0.00,,,0.00,WUHU216HW,2013-10-16 20:18:00,
2013-10-16 16:19:00,70.9,62.2,29.84,SE,141,0.8,1.8,74,0.00,,,0.00,WUHU216HW,2013-10-16 20:19:00,
2013-10-16 16:22:00,70.7,62.0,29.84,SSW,203,1.8,1.8,74,0.00,,,0.00,WUHU216HW,2013-10-16 20:22:00,
2013-10-16 16:23:00,70.7,62.0,29.84,SSW,195,1.3,1.8,74,0.00,,,0.00,WUHU216HW,2013-10-16 20:23:00,
2013-10-16 16:24:00,70.7,62.0,29.84,South,180,0.9,1.8,74,0.00,,,0.00,WUHU216HW,2013-10-16 20:24:00,
2013-10-16 16:28:00,70.4,61.7,29.84,SSE,158,0.4,1.8,74,0.00,,,0.00,WUHU216HW,2013-10-16 20:28:00,
2013-10-16 16:29:00,70.4,61.7,29.84,SE,135,1.8,1.8,74,0.00,,,0.00,WUHU216HW,2013-10-16 20:29:00,
2013-10-16 16:30:00,70.4,62.0,29.84,SE,139,1.1,1.8,75,0.00,,,0.00,WUHU216HW,2013-10-16 20:30:00,
2013-10-16 16:31:00,70.4,62.0,29.84,SSE,158,0.4,1.8,75,0.00,,,0.00,WUHU216HW,2013-10-16 20:31:00,
2013-10-16 16:34:00,70.2,61.8,29.84,SSE,158,1.8,1.8,75,0.00,,,0.00,WUHU216HW,2013-10-16 20:34:00,
2013-10-16 16:35:00,70.2,61.8,29.84,SSE,158,1.3,1.8,75,0.00,,,0.00,WUHU216HW,2013-10-16 20:35:00,
2013-10-16 16:36:00,70.4,62.0,29.83,SSE,158,0.9,1.8,75,0.00,,,0.00,WUHU216HW,2013-10-16 20:36:00,
2013-10-16 16:39:00,70.4,62.0,29.83,SE,135,0.4,1.8,75,0.00,,,0.00,WUHU216HW,2013-10-16 20:39:00,
2013-10-16 16:40:00,70.4,62.0,29.83,SE,135,0.7,1.8,75,0.00,,,0.00,WUHU216HW,2013-10-16 20:40:00,
2013-10-16 16:41:00,70.4,62.0,29.83,SE,135,0.6,1.8,75,0.00,,,0.00,WUHU216HW,2013-10-16 20:41:00,
2013-10-16 16:42:00,70.4,62.0,29.83,SE,135,1.1,1.8,75,0.00,,,0.00,WUHU216HW,2013-10-16 20:42:00,
2013-10-16 16:43:00,70.4,62.0,29.83,SSE,158,1.1,1.1,75,0.00,,,0.00,WUHU216HW,2013-10-16 20:43:00,
2013-10-16 16:44:00,70.4,62.0,29.83,SSE,158,1.1,1.1,75,0.00,,,0.00,WUHU216HW,2013-10-16 20:44:00,
2013-10-16 16:45:00,70.6,62.2,29.83,SE,135,1.8,1.8,75,0.00,,,0.00,WUHU216HW,2013-10-16 20:45:00,
2013-10-16 16:46:00,70.6,62.2,29.83,SE,135,1.3,1.8,75,0.00,,,0.00,WUHU216HW,2013-10-16 20:46:00,
2013-10-16 16:47:00,70.6,62.2,29.83,ESE,113,1.8,1.8,75,0.00,,,0.00,WUHU216HW,2013-10-16 20:47:00,
2013-10-16 16:48:00,70.6,62.2,29.83,ESE,113,1.7,1.8,75,0.00,,,0.00,WUHU216HW,2013-10-16 20:48:00,
2013-10-16 16:49:00,70.6,62.2,29.83,SSE,158,2.5,2.5,75,0.00,,,0.00,WUHU216HW,2013-10-16 20:49:00,
2013-10-16 16:50:00,70.6,62.2,29.83,SSE,158,1.7,2.5,75,0.00,,,0.00,WUHU216HW,2013-10-16 20:50:00,
2013-10-16 16:51:00,70.6,62.2,29.83,SSE,158,1.6,2.5,75,0.00,,,0.00,WUHU216HW,2013-10-16 20:51:00,
2013-10-16 16:53:00,70.6,62.2,29.83,SSE,151,0.6,2.5,75,0.00,,,0.00,WUHU216HW,2013-10-16 20:53:00,
2013-10-16 16:54:00,70.6,62.2,29.83,SE,135,0.7,2.5,75,0.00,,,0.00,WUHU216HW,2013-10-16 20:54:00,
2013-10-16 16:56:00,70.7,62.7,29.83,SE,135,0.2,2.5,76,0.00,,,0.00,WUHU216HW,2013-10-16 20:56:00,
2013-10-16 16:57:00,70.7,62.7,29.83,SSE,158,2.9,2.9,76,0.00,,,0.00,WUHU216HW,2013-10-16 20:57:00,
2013-10-16 16:58:00,70.6,62.6,29.83,SSE,165,2.3,2.9,76,0.00,,,0.00,WUHU216HW,2013-10-16 20:58:00,
2013-10-16 16:59:00,70.7,62.7,29.83,SSW,192,1.0,2.9,76,0.00,,,0.00,WUHU216HW,2013-10-16 20:59:00,
2013-10-16 17:01:00,70.7,62.4,29.83,SSE,158,1.8,2.9,75,0.00,,,0.00,WUHU216HW,2013-10-16 21:01:00,
2013-10-16 17:02:00,70.6,62.2,29.83,South,180,2.5,2.9,75,0.00,,,0.00,WUHU216HW,2013-10-16 21:02:00,
2013-10-16 17:04:00,70.6,62.2,29.83,SW,219,1.0,2.9,75,0.00,,,0.00,WUHU216HW,2013-10-16 21:04:00,
2013-10-16 17:05:00,70.6,62.6,29.83,SE,135,0.2,2.9,76,0.00,,,0.00,WUHU216HW,2013-10-16 21:05:00,
2013-10-16 17:06:00,70.6,62.2,29.83,SSE,158,0.0,2.9,75,0.00,,,0.00,WUHU216HW,2013-10-16 21:06:00,
2013-10-16 17:07:00,70.6,62.2,29.83,SSE,158,0.0,2.5,75,0.00,,,0.00,WUHU216HW,2013-10-16 21:07:00,
2013-10-16 17:09:00,70.6,62.2,29.83,ESE,113,1.3,2.5,75,0.00,,,0.00,WUHU216HW,2013-10-16 21:09:00,
2013-10-16 17:11:00,70.6,62.2,29.83,SSE,154,1.9,2.5,75,0.00,,,0.00,WUHU216HW,2013-10-16 21:11:00,
2013-10-16 17:12:00,70.6,62.2,29.83,South,181,1.3,2.0,75,0.00,,,0.00,WUHU216HW,2013-10-16 21:12:00,
2013-10-16 17:16:00,70.6,62.2,29.83,ESE,113,2.0,2.0,75,0.00,,,0.00,WUHU216HW,2013-10-16 21:16:00,
2013-10-16 17:17:00,70.6,62.2,29.82,ESE,121,1.6,2.0,75,0.00,,,0.00,WUHU216HW,2013-10-16 21:17:00,
2013-10-16 17:18:00,70.6,62.6,29.83,SE,127,1.0,2.0,76,0.00,,,0.00,WUHU216HW,2013-10-16 21:18:00,
2013-10-16 17:22:00,70.6,62.6,29.83,ESE,113,2.0,2.2,76,0.00,,,0.00,WUHU216HW,2013-10-16 21:22:00,
2013-10-16 17:25:00,70.6,62.6,29.83,SSW,203,1.5,2.2,76,0.00,,,0.00,WUHU216HW,2013-10-16 21:25:00,
2013-10-16 17:27:00,70.6,62.6,29.83,SSE,158,0.6,2.2,76,0.00,,,0.00,WUHU216HW,2013-10-16 21:27:00,
2013-10-16 17:28:00,70.7,62.7,29.83,SSE,158,2.0,2.2,76,0.00,,,0.00,WUHU216HW,2013-10-16 21:28:00,
2013-10-16 17:29:00,70.7,62.7,29.83,SSE,149,1.6,2.2,76,0.00,,,0.00,WUHU216HW,2013-10-16 21:29:00,
2013-10-16 17:30:00,70.6,62.6,29.83,SSE,158,1.8,2.2,76,0.00,,,0.00,WUHU216HW,2013-10-16 21:30:00,
2013-10-16 17:31:00,70.6,62.6,29.83,SSE,166,1.5,2.2,76,0.00,,,0.00,WUHU216HW,2013-10-16 21:31:00,
2013-10-16 17:34:00,70.7,62.7,29.82,SE,133,1.0,2.0,76,0.00,,,0.00,WUHU216HW,2013-10-16 21:34:00,
2013-10-16 17:35:00,70.6,62.6,29.82,SSE,151,0.6,2.0,76,0.00,,,0.00,WUHU216HW,2013-10-16 21:35:00,
2013-10-16 17:37:00,70.6,62.6,29.82,SE,135,0.4,2.0,76,0.00,,,0.00,WUHU216HW,2013-10-16 21:37:00,
2013-10-16 17:39:00,70.6,62.6,29.82,ESE,113,1.1,1.8,76,0.00,,,0.00,WUHU216HW,2013-10-16 21:39:00,
2013-10-16 17:41:00,70.4,62.4,29.82,SE,129,1.8,2.7,76,0.00,,,0.00,WUHU216HW,2013-10-16 21:41:00,
2013-10-16 17:42:00,70.4,62.4,29.82,SE,129,1.8,2.7,76,0.00,,,0.00,WUHU216HW,2013-10-16 21:42:00,
2013-10-16 17:44:00,70.4,62.4,29.82,SSE,158,1.1,2.7,76,0.00,,,0.00,WUHU216HW,2013-10-16 21:44:00,
2013-10-16 17:45:00,70.2,62.2,29.82,South,180,1.1,2.7,76,0.00,,,0.00,WUHU216HW,2013-10-16 21:45:00,
2013-10-16 17:46:00,70.2,62.2,29.82,South,186,0.8,2.7,76,0.00,,,0.00,WUHU216HW,2013-10-16 21:46:00,
2013-10-16 17:47:00,70.2,62.2,29.82,SSW,203,0.4,2.7,76,0.00,,,0.00,WUHU216HW,2013-10-16 21:47:00,
2013-10-16 17:48:00,70.2,62.2,29.82,SSW,203,0.0,2.7,76,0.00,,,0.00,WUHU216HW,2013-10-16 21:48:00,
2013-10-16 17:49:00,70.2,62.6,29.82,SSE,158,1.6,2.7,77,0.00,,,0.00,WUHU216HW,2013-10-16 21:49:00,
2013-10-16 17:50:00,70.2,62.6,29.82,SE,142,1.3,2.7,77,0.00,,,0.00,WUHU216HW,2013-10-16 21:50:00,
2013-10-16 17:52:00,70.2,62.6,29.82,SSE,158,0.0,1.6,77,0.00,,,0.00,WUHU216HW,2013-10-16 21:52:00,
2013-10-16 17:53:00,70.0,62.4,29.83,SSE,158,0.0,1.6,77,0.00,,,0.00,WUHU216HW,2013-10-16 21:53:00,
2013-10-16 17:55:00,70.0,62.4,29.82,SSE,158,0.0,1.6,77,0.00,,,0.00,WUHU216HW,2013-10-16 21:55:00,
2013-10-16 17:56:00,70.0,62.4,29.83,SSE,158,0.0,1.6,77,0.00,,,0.00,WUHU216HW,2013-10-16 21:56:00,
2013-10-16 17:59:00,69.8,62.2,29.83,South,180,1.1,1.1,77,0.00,,,0.00,WUHU216HW,2013-10-16 21:59:00,
2013-10-16 18:00:00,69.8,62.2,29.83,South,180,1.1,1.1,77,0.00,,,0.00,WUHU216HW,2013-10-16 22:00:00,
2013-10-16 18:01:00,69.8,62.2,29.82,SE,135,0.7,1.1,77,0.00,,,0.00,WUHU216HW,2013-10-16 22:01:00,
2013-10-16 18:05:00,69.7,62.1,29.82,ESE,113,0.6,1.1,77,0.00,,,0.00,WUHU216HW,2013-10-16 22:05:00,
2013-10-16 18:06:00,69.5,62.3,29.82,ESE,113,0.9,1.1,78,0.00,,,0.00,WUHU216HW,2013-10-16 22:06:00,
2013-10-16 18:07:00,69.5,62.3,29.82,ESE,119,0.6,1.1,78,0.00,,,0.00,WUHU216HW,2013-10-16 22:07:00,
2013-10-16 18:11:00,69.3,62.1,29.82,SE,135,0.2,1.1,78,0.00,,,0.00,WUHU216HW,2013-10-16 22:11:00,
2013-10-16 18:12:00,69.3,62.1,29.82,SE,135,1.1,1.1,78,0.00,,,0.00,WUHU216HW,2013-10-16 22:12:00,
2013-10-16 18:13:00,69.1,61.9,29.82,SE,135,2.2,2.2,78,0.00,,,0.00,WUHU216HW,2013-10-16 22:13:00,
2013-10-16 18:17:00,68.8,62.0,29.82,SE,135,1.1,2.2,79,0.00,,,0.00,WUHU216HW,2013-10-16 22:17:00,
2013-10-16 18:18:00,68.8,62.0,29.82,East,90,1.1,2.2,79,0.00,,,0.00,WUHU216HW,2013-10-16 22:18:00,
2013-10-16 18:19:00,68.8,62.0,29.82,ESE,113,1.6,2.2,79,0.00,,,0.00,WUHU216HW,2013-10-16 22:19:00,
2013-10-16 18:21:00,68.8,62.0,29.82,SE,135,0.4,2.2,79,0.00,,,0.00,WUHU216HW,2013-10-16 22:21:00,
2013-10-16 18:23:00,68.6,61.8,29.82,SSE,158,0.2,1.6,79,0.00,,,0.00,WUHU216HW,2013-10-16 22:23:00,
2013-10-16 18:24:00,68.6,61.8,29.82,SSE,158,0.0,1.6,79,0.00,,,0.00,WUHU216HW,2013-10-16 22:24:00,
2013-10-16 18:27:00,68.4,62.1,29.82,SSE,151,1.3,1.8,80,0.00,,,0.00,WUHU216HW,2013-10-16 22:27:00,
2013-10-16 18:29:00,68.4,62.1,29.82,SSE,149,0.6,1.8,80,0.00,,,0.00,WUHU216HW,2013-10-16 22:29:00,
2013-10-16 18:30:00,68.2,61.9,29.82,SE,135,0.4,1.8,80,0.00,,,0.00,WUHU216HW,2013-10-16 22:30:00,
2013-10-16 18:32:00,68.2,61.9,29.82,SE,135,0.4,1.8,80,0.00,,,0.00,WUHU216HW,2013-10-16 22:32:00,
2013-10-16 18:34:00,68.2,61.9,29.82,SE,135,1.1,1.8,80,0.00,,,0.00,WUHU216HW,2013-10-16 22:34:00,
2013-10-16 18:35:00,68.2,61.9,29.82,SE,135,1.1,1.8,80,0.00,,,0.00,WUHU216HW,2013-10-16 22:35:00,
2013-10-16 18:39:00,68.0,61.7,29.82,SSE,158,1.1,1.1,80,0.00,,,0.00,WUHU216HW,2013-10-16 22:39:00,
2013-10-16 18:40:00,68.0,61.7,29.82,SSE,158,1.1,1.1,80,0.00,,,0.00,WUHU216HW,2013-10-16 22:40:00,
2013-10-16 18:41:00,68.0,61.7,29.82,SSE,158,0.7,1.1,80,0.00,,,0.00,WUHU216HW,2013-10-16 22:41:00,
2013-10-16 18:42:00,68.0,61.7,29.82,SSE,158,0.7,1.1,80,0.00,,,0.00,WUHU216HW,2013-10-16 22:42:00,
2013-10-16 18:44:00,68.0,61.7,29.82,SSE,158,0.4,1.1,80,0.00,,,0.00,WUHU216HW,2013-10-16 22:44:00,
2013-10-16 18:46:00,68.0,61.7,29.82,South,180,1.1,1.1,80,0.00,,,0.00,WUHU216HW,2013-10-16 22:46:00,
2013-10-16 18:47:00,68.0,61.7,29.82,SE,135,1.1,1.1,80,0.00,,,0.00,WUHU216HW,2013-10-16 22:47:00,
2013-10-16 18:48:00,67.9,61.6,29.82,SE,138,0.7,1.1,80,0.00,,,0.00,WUHU216HW,2013-10-16 22:48:00,
2013-10-16 18:49:00,67.9,61.6,29.82,SSE,158,0.2,1.1,80,0.00,,,0.00,WUHU216HW,2013-10-16 22:49:00,
2013-10-16 18:51:00,67.9,61.9,29.82,ESE,113,0.9,1.1,81,0.00,,,0.00,WUHU216HW,2013-10-16 22:51:00,
2013-10-16 18:52:00,67.7,61.8,29.82,SE,135,0.2,1.1,81,0.00,,,0.00,WUHU216HW,2013-10-16 22:52:00,
2013-10-16 18:53:00,67.7,61.8,29.82,ESE,113,1.6,1.6,81,0.00,,,0.00,WUHU216HW,2013-10-16 22:53:00,
2013-10-16 18:55:00,67.7,61.8,29.82,ESE,113,0.4,1.6,81,0.00,,,0.00,WUHU216HW,2013-10-16 22:55:00,
2013-10-16 18:56:00,67.7,61.8,29.82,SE,135,0.9,1.6,81,0.00,,,0.00,WUHU216HW,2013-10-16 22:56:00,
2013-10-16 18:58:00,67.5,61.6,29.82,SE,135,1.1,1.6,81,0.00,,,0.00,WUHU216HW,2013-10-16 22:58:00,
2013-10-16 18:59:00,67.5,61.6,29.82,SE,135,1.0,1.6,81,0.00,,,0.00,WUHU216HW,2013-10-16 22:59:00,
2013-10-16 19:01:00,67.5,61.6,29.82,SE,135,0.2,1.6,81,0.00,,,0.00,WUHU216HW,2013-10-16 23:01:00,
2013-10-16 19:02:00,67.3,61.4,29.82,SE,135,0.0,1.6,81,0.00,,,0.00,WUHU216HW,2013-10-16 23:02:00,
2013-10-16 19:04:00,67.3,61.4,29.82,SE,135,0.9,1.1,81,0.00,,,0.00,WUHU216HW,2013-10-16 23:04:00,
2013-10-16 19:05:00,67.3,61.4,29.82,SSE,158,0.7,1.1,81,0.00,,,0.00,WUHU216HW,2013-10-16 23:05:00,
2013-10-16 19:06:00,67.3,61.7,29.82,SSE,158,0.7,1.1,82,0.00,,,0.00,WUHU216HW,2013-10-16 23:06:00,
2013-10-16 19:07:00,67.3,61.7,29.82,SSE,158,1.1,1.1,82,0.00,,,0.00,WUHU216HW,2013-10-16 23:07:00,
2013-10-16 19:08:00,67.3,61.7,29.82,SSE,158,1.1,1.1,82,0.00,,,0.00,WUHU216HW,2013-10-16 23:08:00,
2013-10-16 19:10:00,67.3,61.7,29.82,SE,135,0.4,1.1,82,0.00,,,0.00,WUHU216HW,2013-10-16 23:10:00,
2013-10-16 19:11:00,67.1,61.5,29.82,SE,135,1.8,1.8,82,0.00,,,0.00,WUHU216HW,2013-10-16 23:11:00,
2013-10-16 19:13:00,67.1,61.5,29.82,SSE,158,1.1,1.8,82,0.00,,,0.00,WUHU216HW,2013-10-16 23:13:00,
2013-10-16 19:14:00,67.1,61.5,29.82,SE,135,1.8,1.8,82,0.00,,,0.00,WUHU216HW,2013-10-16 23:14:00,
2013-10-16 19:16:00,67.0,61.3,29.82,SSE,158,1.1,1.8,82,0.00,,,0.00,WUHU216HW,2013-10-16 23:16:00,
2013-10-16 19:18:00,67.0,61.3,29.82,SE,135,0.9,1.8,82,0.00,,,0.00,WUHU216HW,2013-10-16 23:18:00,
2013-10-16 19:19:00,67.0,61.3,29.82,SE,145,0.8,1.8,82,0.00,,,0.00,WUHU216HW,2013-10-16 23:19:00,
2013-10-16 19:21:00,67.0,61.3,29.82,SSE,158,1.1,1.8,82,0.00,,,0.00,WUHU216HW,2013-10-16 23:21:00,
2013-10-16 19:23:00,67.0,61.3,29.82,SE,135,0.6,1.8,82,0.00,,,0.00,WUHU216HW,2013-10-16 23:23:00,
2013-10-16 19:24:00,66.8,61.1,29.82,SE,135,0.4,1.1,82,0.00,,,0.00,WUHU216HW,2013-10-16 23:24:00,
2013-10-16 19:25:00,66.8,61.1,29.82,SSE,158,0.4,1.1,82,0.00,,,0.00,WUHU216HW,2013-10-16 23:25:00,
2013-10-16 19:28:00,66.8,61.1,29.82,SSE,158,0.6,1.1,82,0.00,,,0.00,WUHU216HW,2013-10-16 23:28:00,
2013-10-16 19:29:00,66.8,61.1,29.82,SSE,158,0.4,1.1,82,0.00,,,0.00,WUHU216HW,2013-10-16 23:29:00,
2013-10-16 19:31:00,66.6,61.3,29.82,SSE,158,0.6,0.9,83,0.00,,,0.00,WUHU216HW,2013-10-16 23:31:00,
2013-10-16 19:32:00,66.6,61.3,29.82,SSE,158,0.4,0.9,83,0.00,,,0.00,WUHU216HW,2013-10-16 23:32:00,
2013-10-16 19:33:00,66.6,61.3,29.82,SSE,158,0.0,0.9,83,0.00,,,0.00,WUHU216HW,2013-10-16 23:33:00,
2013-10-16 19:34:00,66.6,61.3,29.82,SE,135,0.4,0.9,83,0.00,,,0.00,WUHU216HW,2013-10-16 23:34:00,
2013-10-16 19:37:00,66.6,61.3,29.82,SE,135,0.6,0.7,83,0.00,,,0.00,WUHU216HW,2013-10-16 23:37:00,
2013-10-16 19:38:00,66.6,61.3,29.82,SE,128,0.3,0.7,83,0.00,,,0.00,WUHU216HW,2013-10-16 23:38:00,
2013-10-16 19:39:00,66.6,61.3,29.82,ESE,113,0.7,0.7,83,0.00,,,0.00,WUHU216HW,2013-10-16 23:39:00,
2013-10-16 19:40:00,66.6,61.3,29.82,ESE,117,0.4,0.7,83,0.00,,,0.00,WUHU216HW,2013-10-16 23:40:00,
2013-10-16 19:43:00,66.6,61.3,29.82,SE,135,0.7,0.7,83,0.00,,,0.00,WUHU216HW,2013-10-16 23:43:00,
2013-10-16 19:44:00,66.6,61.3,29.82,SSE,158,0.9,0.9,83,0.00,,,0.00,WUHU216HW,2013-10-16 23:44:00,
2013-10-16 19:45:00,66.6,61.3,29.82,ESE,113,1.1,1.1,83,0.00,,,0.00,WUHU216HW,2013-10-16 23:45:00,
2013-10-16 19:46:00,66.4,61.1,29.82,ESE,116,0.7,1.1,83,0.00,,,0.00,WUHU216HW,2013-10-16 23:46:00,
2013-10-16 19:49:00,66.4,61.1,29.82,SSE,158,0.8,1.3,83,0.00,,,0.00,WUHU216HW,2013-10-16 23:49:00,
2013-10-16 19:50:00,66.4,61.1,29.82,SSE,158,0.9,1.3,83,0.00,,,0.00,WUHU216HW,2013-10-16 23:50:00,
2013-10-16 19:51:00,66.4,61.1,29.82,SSE,158,1.1,1.3,83,0.00,,,0.00,WUHU216HW,2013-10-16 23:51:00,
2013-10-16 19:52:00,66.4,61.1,29.82,SSE,154,0.7,1.3,83,0.00,,,0.00,WUHU216HW,2013-10-16 23:52:00,
2013-10-16 19:53:00,66.4,61.1,29.82,SE,135,0.2,1.3,83,0.00,,,0.00,WUHU216HW,2013-10-16 23:53:00,
2013-10-16 19:55:00,66.2,60.9,29.82,SSE,158,0.0,1.3,83,0.00,,,0.00,WUHU216HW,2013-10-16 23:55:00,
2013-10-16 19:56:00,66.2,60.9,29.82,SSE,158,0.7,1.3,83,0.00,,,0.00,WUHU216HW,2013-10-16 23:56:00,
2013-10-16 19:57:00,66.2,60.9,29.83,SSE,158,1.3,1.3,83,0.00,,,0.00,WUHU216HW,2013-10-16 23:57:00,
2013-10-16 19:58:00,66.2,61.2,29.82,SSE,168,1.2,1.3,84,0.00,,,0.00,WUHU216HW,2013-10-16 23:58:00,
2013-10-16 19:59:00,66.2,61.2,29.82,SSE,164,0.8,1.3,84,0.00,,,0.00,WUHU216HW,2013-10-16 23:59:00,
2013-10-16 20:01:00,66.2,61.2,29.82,ESE,113,0.2,1.3,84,0.00,,,0.00,WUHU216HW,2013-10-17 00:01:00,
2013-10-16 20:02:00,66.2,61.2,29.82,ESE,113,0.4,1.3,84,0.00,,,0.00,WUHU216HW,2013-10-17 00:02:00,
2013-10-16 20:03:00,66.2,61.2,29.82,SSE,158,0.7,1.3,84,0.00,,,0.00,WUHU216HW,2013-10-17 00:03:00,
2013-10-16 20:04:00,66.2,61.2,29.82,SSE,158,0.6,1.3,84,0.00,,,0.00,WUHU216HW,2013-10-17 00:04:00,
2013-10-16 20:06:00,66.2,61.2,29.83,SSE,158,0.0,1.3,84,0.00,,,0.00,WUHU216HW,2013-10-17 00:06:00,
2013-10-16 20:07:00,66.1,61.0,29.83,SSE,158,0.0,1.1,84,0.00,,,0.00,WUHU216HW,2013-10-17 00:07:00,
2013-10-16 20:08:00,66.1,61.0,29.83,SSE,158,0.0,0.7,84,0.00,,,0.00,WUHU216HW,2013-10-17 00:08:00,
2013-10-16 20:10:00,66.1,61.0,29.83,SSE,158,0.0,0.7,84,0.00,,,0.00,WUHU216HW,2013-10-17 00:10:00,
2013-10-16 20:13:00,66.1,61.0,29.83,SSE,158,0.0,0.4,84,0.00,,,0.00,WUHU216HW,2013-10-17 00:13:00,
2013-10-16 20:14:00,66.1,61.0,29.83,SSE,158,0.7,0.7,84,0.00,,,0.00,WUHU216HW,2013-10-17 00:14:00,
2013-10-16 20:15:00,66.1,61.0,29.83,SSE,158,0.7,0.7,84,0.00,,,0.00,WUHU216HW,2013-10-17 00:15:00,
2013-10-16 20:18:00,65.9,60.9,29.83,SSE,158,0.8,1.3,84,0.00,,,0.00,WUHU216HW,2013-10-17 00:18:00,
2013-10-16 20:19:00,65.9,60.9,29.83,SSE,158,0.4,1.3,84,0.00,,,0.00,WUHU216HW,2013-10-17 00:19:00,
2013-10-16 20:20:00,65.9,60.9,29.83,SSE,158,0.0,1.3,84,0.00,,,0.00,WUHU216HW,2013-10-17 00:20:00,
2013-10-16 20:22:00,65.9,60.9,29.83,SSE,158,0.7,1.3,84,0.00,,,0.00,WUHU216HW,2013-10-17 00:22:00,
2013-10-16 20:23:00,65.9,60.9,29.83,SSE,158,0.6,1.3,84,0.00,,,0.00,WUHU216HW,2013-10-17 00:23:00,
2013-10-16 20:24:00,65.9,60.9,29.83,SSE,158,0.9,1.3,84,0.00,,,0.00,WUHU216HW,2013-10-17 00:24:00,
2013-10-16 20:25:00,65.9,60.9,29.82,ESE,113,1.1,1.3,84,0.00,,,0.00,WUHU216HW,2013-10-17 00:25:00,
2013-10-16 20:26:00,65.9,60.9,29.82,ESE,116,0.7,1.3,84,0.00,,,0.00,WUHU216HW,2013-10-17 00:26:00,
2013-10-16 20:27:00,65.9,60.9,29.82,SE,135,0.2,1.1,84,0.00,,,0.00,WUHU216HW,2013-10-17 00:27:00,
2013-10-16 20:29:00,65.9,60.9,29.82,SE,135,0.7,1.1,84,0.00,,,0.00,WUHU216HW,2013-10-17 00:29:00,
2013-10-16 20:30:00,65.9,60.9,29.82,SE,135,0.7,1.1,84,0.00,,,0.00,WUHU216HW,2013-10-17 00:30:00,
2013-10-16 20:32:00,65.9,60.9,29.82,SSE,158,0.3,1.1,84,0.00,,,0.00,WUHU216HW,2013-10-17 00:32:00,
2013-10-16 20:33:00,65.9,60.9,29.82,SSE,158,1.1,1.1,84,0.00,,,0.00,WUHU216HW,2013-10-17 00:33:00,
2013-10-16 20:34:00,65.9,60.9,29.82,SSE,158,0.8,1.1,84,0.00,,,0.00,WUHU216HW,2013-10-17 00:34:00,
2013-10-16 20:35:00,65.9,60.9,29.82,South,172,0.3,1.1,84,0.00,,,0.00,WUHU216HW,2013-10-17 00:35:00,
2013-10-16 20:36:00,65.9,60.9,29.82,SSW,203,0.2,1.1,84,0.00,,,0.00,WUHU216HW,2013-10-17 00:36:00,
2013-10-16 20:37:00,65.9,60.9,29.82,SSW,203,0.0,1.1,84,0.00,,,0.00,WUHU216HW,2013-10-17 00:37:00,
2013-10-16 20:39:00,65.7,60.8,29.83,West,270,0.4,1.1,84,0.00,,,0.00,WUHU216HW,2013-10-17 00:39:00,
2013-10-16 20:40:00,65.7,60.8,29.83,West,270,0.4,1.1,84,0.00,,,0.00,WUHU216HW,2013-10-17 00:40:00,
2013-10-16 20:43:00,65.7,60.8,29.83,SSE,158,1.1,1.1,84,0.00,,,0.00,WUHU216HW,2013-10-17 00:43:00,
2013-10-16 20:45:00,65.7,60.8,29.83,SSE,158,0.0,1.1,84,0.00,,,0.00,WUHU216HW,2013-10-17 00:45:00,
2013-10-16 20:46:00,65.5,60.8,29.83,SSE,158,0.4,1.1,85,0.00,,,0.00,WUHU216HW,2013-10-17 00:46:00,
2013-10-16 20:47:00,65.5,60.8,29.83,SSE,158,0.4,1.1,85,0.00,,,0.00,WUHU216HW,2013-10-17 00:47:00,
2013-10-16 20:49:00,65.5,60.8,29.82,SSE,158,0.4,1.1,85,0.00,,,0.00,WUHU216HW,2013-10-17 00:49:00,
2013-10-16 20:50:00,65.5,60.8,29.83,SSE,158,0.4,1.1,85,0.00,,,0.00,WUHU216HW,2013-10-17 00:50:00,
2013-10-16 20:54:00,65.5,60.8,29.82,ESE,113,0.4,0.9,85,0.00,,,0.00,WUHU216HW,2013-10-17 00:54:00,
2013-10-16 20:55:00,65.5,60.8,29.82,ESE,113,0.3,0.9,85,0.00,,,0.00,WUHU216HW,2013-10-17 00:55:00,
2013-10-16 20:56:00,65.5,60.8,29.83,ESE,113,0.2,0.9,85,0.00,,,0.00,WUHU216HW,2013-10-17 00:56:00,
2013-10-16 20:57:00,65.5,60.8,29.82,SE,135,0.4,0.9,85,0.00,,,0.00,WUHU216HW,2013-10-17 00:57:00,
2013-10-16 20:59:00,65.5,60.8,29.83,SE,135,0.4,0.9,85,0.00,,,0.00,WUHU216HW,2013-10-17 00:59:00,
2013-10-16 21:00:00,65.5,60.8,29.83,SE,135,0.0,0.9,85,0.00,,,0.00,WUHU216HW,2013-10-17 01:00:00,
2013-10-16 21:01:00,65.3,60.8,29.83,SE,135,0.0,0.7,85,0.00,,,0.00,WUHU216HW,2013-10-17 01:01:00,
2013-10-16 21:02:00,65.3,60.8,29.83,SE,135,0.0,0.4,85,0.00,,,0.00,WUHU216HW,2013-10-17 01:02:00,
2013-10-16 21:05:00,65.5,60.8,29.83,SE,135,0.4,0.4,85,0.00,,,0.00,WUHU216HW,2013-10-17 01:05:00,
2013-10-16 21:07:00,65.3,60.8,29.83,SSE,158,0.2,0.4,85,0.00,,,0.00,WUHU216HW,2013-10-17 01:07:00,
2013-10-16 21:08:00,65.3,60.8,29.83,SSE,158,0.2,0.4,85,0.00,,,0.00,WUHU216HW,2013-10-17 01:08:00,
2013-10-16 21:10:00,65.3,60.8,29.82,SE,135,0.4,0.4,85,0.00,,,0.00,WUHU216HW,2013-10-17 01:10:00,
2013-10-16 21:11:00,65.3,60.8,29.83,SSE,158,0.4,0.4,85,0.00,,,0.00,WUHU216HW,2013-10-17 01:11:00,
2013-10-16 21:13:00,65.3,60.8,29.83,SE,135,0.4,0.4,85,0.00,,,0.00,WUHU216HW,2013-10-17 01:13:00,
2013-10-16 21:15:00,65.3,60.8,29.83,SSE,158,1.3,1.3,85,0.00,,,0.00,WUHU216HW,2013-10-17 01:15:00,
2013-10-16 21:17:00,65.3,60.8,29.83,SW,225,0.0,1.3,85,0.00,,,0.00,WUHU216HW,2013-10-17 01:17:00,
2013-10-16 21:18:00,65.3,61.0,29.83,SW,225,0.0,1.3,86,0.00,,,0.00,WUHU216HW,2013-10-17 01:18:00,
2013-10-16 21:19:00,65.3,61.0,29.83,SW,225,1.1,1.3,86,0.00,,,0.00,WUHU216HW,2013-10-17 01:19:00,
2013-10-16 21:20:00,65.3,61.0,29.83,SW,225,0.8,1.3,86,0.00,,,0.00,WUHU216HW,2013-10-17 01:20:00,
2013-10-16 21:23:00,65.3,61.0,29.83,SW,225,0.0,1.3,86,0.00,,,0.00,WUHU216HW,2013-10-17 01:23:00,
2013-10-16 21:25:00,65.3,61.0,29.83,SW,225,0.0,1.1,86,0.00,,,0.00,WUHU216HW,2013-10-17 01:25:00,
2013-10-16 21:26:00,65.3,61.0,29.83,SW,225,0.0,1.1,86,0.00,,,0.00,WUHU216HW,2013-10-17 01:26:00,
2013-10-16 21:27:00,65.3,61.0,29.83,SSW,203,0.0,1.1,86,0.00,,,0.00,WUHU216HW,2013-10-17 01:27:00,
2013-10-16 21:28:00,65.2,60.8,29.83,SSW,203,0.0,1.1,86,0.00,,,0.00,WUHU216HW,2013-10-17 01:28:00,
2013-10-16 21:30:00,65.2,60.8,29.83,SW,225,0.4,0.4,86,0.00,,,0.00,WUHU216HW,2013-10-17 01:30:00,
2013-10-16 21:32:00,65.2,60.8,29.83,SSE,158,0.8,1.1,86,0.00,,,0.00,WUHU216HW,2013-10-17 01:32:00,
2013-10-16 21:33:00,65.2,60.8,29.83,SSE,150,0.3,1.1,86,0.00,,,0.00,WUHU216HW,2013-10-17 01:33:00,
2013-10-16 21:35:00,65.2,60.8,29.83,SSE,158,1.1,1.1,86,0.00,,,0.00,WUHU216HW,2013-10-17 01:35:00,
2013-10-16 21:37:00,65.2,60.6,29.82,SSE,158,1.3,1.3,85,0.00,,,0.00,WUHU216HW,2013-10-17 01:37:00,
2013-10-16 21:38:00,65.2,60.8,29.83,SSE,158,1.1,1.3,86,0.00,,,0.00,WUHU216HW,2013-10-17 01:38:00,
2013-10-16 21:39:00,65.2,60.8,29.83,SSE,158,0.6,1.3,86,0.00,,,0.00,WUHU216HW,2013-10-17 01:39:00,
2013-10-16 21:40:00,65.2,60.8,29.83,SSE,158,0.2,1.3,86,0.00,,,0.00,WUHU216HW,2013-10-17 01:40:00,
2013-10-16 21:43:00,65.2,60.8,29.82,ENE,68,0.4,1.3,86,0.00,,,0.00,WUHU216HW,2013-10-17 01:43:00,
2013-10-16 21:44:00,65.2,60.8,29.82,ENE,68,0.4,1.3,86,0.00,,,0.00,WUHU216HW,2013-10-17 01:44:00,
2013-10-16 21:45:00,65.2,60.8,29.82,ENE,68,0.4,1.3,86,0.00,,,0.00,WUHU216HW,2013-10-17 01:45:00,
2013-10-16 21:47:00,65.2,60.8,29.82,ENE,68,0.0,0.9,86,0.00,,,0.00,WUHU216HW,2013-10-17 01:47:00,
2013-10-16 21:49:00,65.3,61.0,29.83,WNW,293,0.0,0.4,86,0.00,,,0.00,WUHU216HW,2013-10-17 01:49:00,
2013-10-16 21:50:00,65.3,61.0,29.83,WNW,293,0.0,0.4,86,0.00,,,0.00,WUHU216HW,2013-10-17 01:50:00,
2013-10-16 21:51:00,65.2,60.8,29.83,WNW,293,0.0,0.4,86,0.00,,,0.00,WUHU216HW,2013-10-17 01:51:00,
2013-10-16 21:52:00,65.3,61.0,29.83,WNW,293,0.0,0.4,86,0.00,,,0.00,WUHU216HW,2013-10-17 01:52:00,
2013-10-16 21:54:00,65.2,60.8,29.83,WNW,293,0.0,0.0,86,0.00,,,0.00,WUHU216HW,2013-10-17 01:54:00,
2013-10-16 21:55:00,65.2,60.8,29.83,WNW,293,0.0,0.0,86,0.00,,,0.00,WUHU216HW,2013-10-17 01:55:00,
2013-10-16 21:56:00,65.2,60.8,29.83,WNW,293,0.0,0.0,86,0.00,,,0.00,WUHU216HW,2013-10-17 01:56:00,
2013-10-16 21:57:00,65.2,60.8,29.83,WNW,293,0.0,0.0,86,0.00,,,0.00,WUHU216HW,2013-10-17 01:57:00,
2013-10-16 21:58:00,65.2,60.8,29.83,WNW,293,0.0,0.0,86,0.00,,,0.00,WUHU216HW,2013-10-17 01:58:00,
2013-10-16 22:00:00,65.2,60.6,29.83,WNW,293,0.0,0.0,85,0.00,,,0.00,WUHU216HW,2013-10-17 02:00:00,
2013-10-16 22:01:00,65.2,60.6,29.83,WNW,293,0.0,0.0,85,0.00,,,0.00,WUHU216HW,2013-10-17 02:01:00,
2013-10-16 22:02:00,65.2,60.6,29.83,WNW,293,0.0,0.0,85,0.00,,,0.00,WUHU216HW,2013-10-17 02:02:00,
2013-10-16 22:04:00,65.2,60.6,29.83,WNW,293,0.0,0.0,85,0.00,,,0.00,WUHU216HW,2013-10-17 02:04:00,
2013-10-16 22:06:00,65.2,60.8,29.83,WNW,293,0.0,0.0,86,0.00,,,0.00,WUHU216HW,2013-10-17 02:06:00,
2013-10-16 22:07:00,65.2,60.8,29.83,WNW,293,0.0,0.0,86,0.00,,,0.00,WUHU216HW,2013-10-17 02:07:00,
2013-10-16 22:08:00,65.2,60.8,29.83,WNW,293,0.0,0.0,86,0.00,,,0.00,WUHU216HW,2013-10-17 02:08:00,
2013-10-16 22:11:00,65.0,60.7,29.83,WNW,293,0.0,0.0,86,0.00,,,0.00,WUHU216HW,2013-10-17 02:11:00,
2013-10-16 22:12:00,65.0,60.7,29.83,WNW,293,0.0,0.0,86,0.00,,,0.00,WUHU216HW,2013-10-17 02:12:00,
2013-10-16 22:13:00,65.0,60.7,29.83,WNW,293,0.0,0.0,86,0.00,,,0.00,WUHU216HW,2013-10-17 02:13:00,
2013-10-16 22:14:00,65.0,60.7,29.83,WNW,293,0.0,0.0,86,0.00,,,0.00,WUHU216HW,2013-10-17 02:14:00,
2013-10-16 22:17:00,65.0,60.7,29.83,NW,315,0.0,0.0,86,0.00,,,0.00,WUHU216HW,2013-10-17 02:17:00,
2013-10-16 22:18:00,64.8,60.6,29.83,NW,315,0.0,0.0,86,0.00,,,0.00,WUHU216HW,2013-10-17 02:18:00,
2013-10-16 22:19:00,64.8,60.6,29.83,NW,315,0.0,0.0,86,0.00,,,0.00,WUHU216HW,2013-10-17 02:19:00,
2013-10-16 22:20:00,65.0,60.7,29.83,NW,315,0.0,0.0,86,0.00,,,0.00,WUHU216HW,2013-10-17 02:20:00,
2013-10-16 22:21:00,64.8,60.6,29.83,NW,315,0.0,0.0,86,0.00,,,0.00,WUHU216HW,2013-10-17 02:21:00,
2013-10-16 22:22:00,64.8,60.6,29.83,NW,315,0.0,0.0,86,0.00,,,0.00,WUHU216HW,2013-10-17 02:22:00,
2013-10-16 22:23:00,65.0,60.7,29.83,NW,315,0.0,0.0,86,0.00,,,0.00,WUHU216HW,2013-10-17 02:23:00,
2013-10-16 22:24:00,65.0,60.7,29.83,NW,315,0.0,0.0,86,0.00,,,0.00,WUHU216HW,2013-10-17 02:24:00,
2013-10-16 22:25:00,64.8,60.6,29.83,SSW,203,0.4,0.4,86,0.00,,,0.00,WUHU216HW,2013-10-17 02:25:00,
2013-10-16 22:26:00,65.0,60.7,29.83,SE,135,1.1,1.1,86,0.00,,,0.00,WUHU216HW,2013-10-17 02:26:00,
2013-10-16 22:27:00,65.0,60.7,29.83,SE,135,1.1,1.1,86,0.00,,,0.00,WUHU216HW,2013-10-17 02:27:00,
2013-10-16 22:30:00,64.8,60.6,29.83,SSE,166,1.3,2.2,86,0.00,,,0.00,WUHU216HW,2013-10-17 02:30:00,
2013-10-16 22:32:00,65.0,60.7,29.83,SSE,158,0.4,2.2,86,0.00,,,0.00,WUHU216HW,2013-10-17 02:32:00,
2013-10-16 22:33:00,64.8,60.6,29.83,SSE,158,0.4,2.2,86,0.00,,,0.00,WUHU216HW,2013-10-17 02:33:00,
2013-10-16 22:36:00,64.8,60.6,29.83,SSE,158,0.4,2.2,86,0.00,,,0.00,WUHU216HW,2013-10-17 02:36:00,
2013-10-16 22:37:00,64.8,60.6,29.83,SSE,158,0.0,1.6,86,0.00,,,0.00,WUHU216HW,2013-10-17 02:37:00,
2013-10-16 22:38:00,64.8,60.6,29.83,SSE,158,0.0,1.6,86,0.00,,,0.00,WUHU216HW,2013-10-17 02:38:00,
2013-10-16 22:39:00,64.8,60.6,29.83,SSE,158,0.8,1.6,86,0.00,,,0.00,WUHU216HW,2013-10-17 02:39:00,
2013-10-16 22:42:00,64.8,60.8,29.83,SSE,158,0.6,1.1,87,0.00,,,0.00,WUHU216HW,2013-10-17 02:42:00,
2013-10-16 22:43:00,64.8,60.8,29.83,SSE,158,0.6,1.1,87,0.00,,,0.00,WUHU216HW,2013-10-17 02:43:00,
2013-10-16 22:45:00,65.0,61.0,29.83,SSE,158,0.9,1.1,87,0.00,,,0.00,WUHU216HW,2013-10-17 02:45:00,
2013-10-16 22:48:00,64.8,60.8,29.83,SSW,203,0.8,1.3,87,0.00,,,0.00,WUHU216HW,2013-10-17 02:48:00,
2013-10-16 22:49:00,64.8,60.8,29.83,SSW,203,0.4,1.3,87,0.00,,,0.00,WUHU216HW,2013-10-17 02:49:00,
2013-10-16 22:50:00,64.8,60.8,29.83,SSW,203,0.2,1.3,87,0.00,,,0.00,WUHU216HW,2013-10-17 02:50:00,
2013-10-16 22:51:00,64.8,60.8,29.83,SSW,203,0.7,1.3,87,0.00,,,0.00,WUHU216HW,2013-10-17 02:51:00,
2013-10-16 22:54:00,64.8,60.8,29.83,SSE,158,0.4,1.3,87,0.00,,,0.00,WUHU216HW,2013-10-17 02:54:00,
2013-10-16 22:56:00,64.8,60.8,29.83,SSE,158,0.9,1.3,87,0.00,,,0.00,WUHU216HW,2013-10-17 02:56:00,
2013-10-16 22:57:00,65.0,61.0,29.82,SSE,158,1.1,1.1,87,0.00,,,0.00,WUHU216HW,2013-10-17 02:57:00,
2013-10-16 22:59:00,64.8,60.8,29.82,SSE,158,1.1,1.1,87,0.00,,,0.00,WUHU216HW,2013-10-17 02:59:00,
2013-10-16 23:00:00,64.8,60.8,29.82,SSE,158,0.0,1.1,87,0.00,,,0.00,WUHU216HW,2013-10-17 03:00:00,
2013-10-16 23:01:00,64.8,60.8,29.83,SSE,158,0.9,1.1,87,0.00,,,0.00,WUHU216HW,2013-10-17 03:01:00,
2013-10-16 23:02:00,64.8,60.8,29.82,SSE,158,1.3,1.3,87,0.00,,,0.00,WUHU216HW,2013-10-17 03:02:00,
2013-10-16 23:03:00,65.0,61.0,29.83,SSE,158,0.8,1.3,87,0.00,,,0.00,WUHU216HW,2013-10-17 03:03:00,
2013-10-16 23:05:00,64.8,60.8,29.83,SSE,158,0.2,1.3,87,0.00,,,0.00,WUHU216HW,2013-10-17 03:05:00,
2013-10-16 23:06:00,64.8,60.8,29.82,SSE,158,0.0,1.3,87,0.00,,,0.00,WUHU216HW,2013-10-17 03:06:00,
2013-10-16 23:07:00,64.8,60.8,29.82,SSE,158,0.0,1.3,87,0.00,,,0.00,WUHU216HW,2013-10-17 03:07:00,
2013-10-16 23:09:00,64.8,60.8,29.82,SSE,158,0.4,1.3,87,0.00,,,0.00,WUHU216HW,2013-10-17 03:09:00,
2013-10-16 23:10:00,64.8,60.8,29.82,SSE,158,0.4,1.3,87,0.00,,,0.00,WUHU216HW,2013-10-17 03:10:00,
2013-10-16 23:11:00,64.8,60.8,29.82,SSE,158,0.0,1.3,87,0.00,,,0.00,WUHU216HW,2013-10-17 03:11:00,
2013-10-16 23:12:00,64.8,60.8,29.82,SSE,158,0.0,0.4,87,0.00,,,0.00,WUHU216HW,2013-10-17 03:12:00,
2013-10-16 23:15:00,64.8,60.8,29.82,SSE,158,0.0,0.4,87,0.00,,,0.00,WUHU216HW,2013-10-17 03:15:00,
2013-10-16 23:16:00,64.8,60.8,29.82,SSE,158,0.0,0.4,87,0.00,,,0.00,WUHU216HW,2013-10-17 03:16:00,
2013-10-16 23:17:00,64.8,60.8,29.82,SSE,158,0.0,0.4,87,0.00,,,0.00,WUHU216HW,2013-10-17 03:17:00,
2013-10-16 23:19:00,64.8,60.8,29.82,SSE,158,0.0,0.0,87,0.00,,,0.00,WUHU216HW,2013-10-17 03:19:00,
2013-10-16 23:20:00,64.8,60.8,29.82,SSE,158,0.4,0.4,87,0.00,,,0.00,WUHU216HW,2013-10-17 03:20:00,
2013-10-16 23:22:00,64.8,60.8,29.82,SSE,158,0.4,0.4,87,0.00,,,0.00,WUHU216HW,2013-10-17 03:22:00,
2013-10-16 23:23:00,64.8,60.8,29.82,SSE,158,0.4,0.4,87,0.00,,,0.00,WUHU216HW,2013-10-17 03:23:00,
2013-10-16 23:25:00,64.8,60.8,29.82,SSE,158,0.0,0.4,87,0.00,,,0.00,WUHU216HW,2013-10-17 03:25:00,
2013-10-16 23:26:00,64.8,60.8,29.82,SSE,158,0.0,0.4,87,0.00,,,0.00,WUHU216HW,2013-10-17 03:26:00,
2013-10-16 23:27:00,64.8,60.8,29.82,SSE,158,0.0,0.4,87,0.00,,,0.00,WUHU216HW,2013-10-17 03:27:00,
2013-10-16 23:28:00,64.8,60.8,29.82,SSE,158,0.0,0.4,87,0.00,,,0.00,WUHU216HW,2013-10-17 03:28:00,
2013-10-16 23:30:00,64.8,60.8,29.82,SSE,158,0.0,0.4,87,0.00,,,0.00,WUHU216HW,2013-10-17 03:30:00,
2013-10-16 23:31:00,64.8,60.8,29.82,West,270,0.2,0.4,87,0.00,,,0.00,WUHU216HW,2013-10-17 03:31:00,
2013-10-16 23:33:00,64.8,60.8,29.82,West,270,0.0,0.2,87,0.00,,,0.00,WUHU216HW,2013-10-17 03:33:00,
2013-10-16 23:34:00,64.8,60.8,29.82,SW,225,0.0,0.2,87,0.00,,,0.00,WUHU216HW,2013-10-17 03:34:00,
2013-10-16 23:36:00,64.6,60.7,29.82,SW,225,0.0,0.2,87,0.00,,,0.00,WUHU216HW,2013-10-17 03:36:00,
2013-10-16 23:37:00,64.6,60.7,29.82,SW,225,0.0,0.2,87,0.00,,,0.00,WUHU216HW,2013-10-17 03:37:00,
2013-10-16 23:39:00,64.6,60.7,29.82,SW,225,0.0,0.2,87,0.00,,,0.00,WUHU216HW,2013-10-17 03:39:00,
2013-10-16 23:40:00,64.6,60.7,29.82,SW,225,0.0,0.2,87,0.00,,,0.00,WUHU216HW,2013-10-17 03:40:00,
2013-10-16 23:41:00,64.6,60.7,29.82,SW,225,0.0,0.0,87,0.00,,,0.00,WUHU216HW,2013-10-17 03:41:00,
2013-10-16 23:42:00,64.6,60.7,29.82,SW,225,0.0,0.0,87,0.00,,,0.00,WUHU216HW,2013-10-17 03:42:00,
2013-10-16 23:43:00,64.6,60.7,29.82,SW,225,0.0,0.0,87,0.00,,,0.00,WUHU216HW,2013-10-17 03:43:00,
2013-10-16 23:45:00,64.6,60.7,29.82,SW,225,0.0,0.0,87,0.00,,,0.00,WUHU216HW,2013-10-17 03:45:00,
2013-10-16 23:46:00,64.6,60.7,29.82,SW,225,0.0,0.0,87,0.00,,,0.00,WUHU216HW,2013-10-17 03:46:00,
2013-10-16 23:47:00,64.6,60.7,29.82,SW,225,0.0,0.0,87,0.00,,,0.00,WUHU216HW,2013-10-17 03:47:00,
2013-10-16 23:49:00,64.4,60.6,29.82,SW,225,0.0,0.0,87,0.00,,,0.00,WUHU216HW,2013-10-17 03:49:00,
2013-10-16 23:50:00,64.4,60.6,29.82,SW,225,0.0,0.0,87,0.00,,,0.00,WUHU216HW,2013-10-17 03:50:00,
2013-10-16 23:51:00,64.4,60.8,29.82,SW,225,0.0,0.0,88,0.00,,,0.00,WUHU216HW,2013-10-17 03:51:00,
2013-10-16 23:52:00,64.4,60.8,29.82,SW,225,0.0,0.0,88,0.00,,,0.00,WUHU216HW,2013-10-17 03:52:00,
2013-10-16 23:53:00,64.4,60.8,29.82,SW,225,0.0,0.0,88,0.00,,,0.00,WUHU216HW,2013-10-17 03:53:00,
2013-10-16 23:54:00,64.4,60.8,29.82,SW,225,0.0,0.0,88,0.00,,,0.00,WUHU216HW,2013-10-17 03:54:00,
2013-10-16 23:56:00,64.4,60.8,29.82,SW,225,0.0,0.0,88,0.00,,,0.00,WUHU216HW,2013-10-17 03:56:00,
2013-10-16 23:57:00,64.4,60.8,29.81,SW,225,0.0,0.0,88,0.00,,,0.00,WUHU216HW,2013-10-17 03:57:00,
2013-10-16 23:58:00,64.4,60.8,29.81,SSE,158,0.0,0.0,88,0.00,,,0.00,WUHU216HW,2013-10-17 03:58:00,
2013-10-16 23:59:00,64.4,60.8,29.81,SSE,158,0.0,0.0,88,0.00,,,0.00,WUHU216HW,2013-10-17 03:59:00,